Wetterdaten: Montag, 17.04.2017
Datum Zeit Temp. A. Feuchte A. Luftdruck Regen Wind Richtung Richtung Sonnenschein ET UV Solar Taupunkt Windchill Windben Empfang
17.04.2017 00:00 4,7 C 89 % 1018,7 hPa 0,0 l/m 17,2 km/h (3 Bft) SW 214 0 min 0,000 mm 0,0 UV-I 0 W/m 3,0 C -2,4 C 22,5 km/h (4 Bft) 96,00 %
17.04.2017 00:02 4,7 C 89 % 1018,8 hPa 0,0 l/m 14,0 km/h (3 Bft) W-SW 257 0 min 0,000 mm 0,0 UV-I 0 W/m 3,0 C -0,8 C 24,1 km/h (4 Bft) 91,89 %
17.04.2017 00:04 4,6 C 89 % 1018,7 hPa 0,0 l/m 13,2 km/h (3 Bft) W-SW 240 0 min 0,000 mm 0,0 UV-I 0 W/m 2,9 C -0,4 C 17,7 km/h (3 Bft) 95,45 %
17.04.2017 00:06 4,6 C 89 % 1018,8 hPa 0,0 l/m 13,5 km/h (3 Bft) W-SW 245 0 min 0,000 mm 0,0 UV-I 0 W/m 2,9 C -0,6 C 20,9 km/h (4 Bft) 94,34 %
17.04.2017 00:08 4,6 C 89 % 1018,8 hPa 0,0 l/m 12,3 km/h (3 Bft) SW 220 0 min 0,000 mm 0,0 UV-I 0 W/m 2,9 C 0,1 C 17,7 km/h (3 Bft) 92,68 %
17.04.2017 00:10 4,5 C 89 % 1018,8 hPa 0,0 l/m 12,4 km/h (3 Bft) S-SW 212 0 min 0,000 mm 0,0 UV-I 0 W/m 2,8 C -0,1 C 16,1 km/h (3 Bft) 94,92 %
17.04.2017 00:12 4,5 C 89 % 1018,7 hPa 0,0 l/m 10,0 km/h (2 Bft) W-SW 242 0 min 0,000 mm 0,0 UV-I 0 W/m 2,8 C 1,5 C 14,5 km/h (3 Bft) 95,12 %
17.04.2017 00:14 4,4 C 89 % 1018,7 hPa 0,0 l/m 16,3 km/h (3 Bft) W-SW 244 0 min 0,000 mm 0,0 UV-I 0 W/m 2,7 C -2,3 C 24,1 km/h (4 Bft) 94,00 %
17.04.2017 00:16 4,4 C 89 % 1018,7 hPa 0,0 l/m 11,3 km/h (2 Bft) SW 230 0 min 0,000 mm 0,0 UV-I 0 W/m 2,7 C 0,5 C 17,7 km/h (3 Bft) 100,00 %
17.04.2017 00:18 4,4 C 90 % 1018,7 hPa 0,0 l/m 13,5 km/h (3 Bft) SW 231 0 min 0,000 mm 0,0 UV-I 0 W/m 2,9 C -0,8 C 24,1 km/h (4 Bft) 95,00 %
17.04.2017 00:20 4,3 C 90 % 1018,7 hPa 0,0 l/m 14,8 km/h (3 Bft) SW 231 0 min 0,000 mm 0,0 UV-I 0 W/m 2,8 C -1,7 C 25,7 km/h (4 Bft) 93,18 %
17.04.2017 00:22 4,3 C 90 % 1018,6 hPa 0,0 l/m 12,5 km/h (3 Bft) SW 220 0 min 0,000 mm 0,0 UV-I 0 W/m 2,8 C -0,4 C 17,7 km/h (3 Bft) 98,11 %
17.04.2017 00:24 4,3 C 90 % 1018,7 hPa 0,0 l/m 12,5 km/h (3 Bft) W-SW 239 0 min 0,000 mm 0,0 UV-I 0 W/m 2,8 C -0,4 C 19,3 km/h (3 Bft) 95,12 %
17.04.2017 00:26 4,3 C 90 % 1018,6 hPa 0,0 l/m 13,5 km/h (3 Bft) W-SW 237 0 min 0,000 mm 0,0 UV-I 0 W/m 2,8 C -0,9 C 17,7 km/h (3 Bft) 98,00 %
17.04.2017 00:28 4,3 C 90 % 1018,6 hPa 0,0 l/m 10,5 km/h (2 Bft) SW 234 0 min 0,000 mm 0,0 UV-I 0 W/m 2,8 C 0,9 C 19,3 km/h (3 Bft) 97,87 %
17.04.2017 00:30 4,3 C 90 % 1018,7 hPa 0,0 l/m 11,7 km/h (2 Bft) SW 232 0 min 0,000 mm 0,0 UV-I 0 W/m 2,8 C 0,1 C 20,9 km/h (4 Bft) 96,00 %
17.04.2017 00:32 4,3 C 90 % 1018,7 hPa 0,0 l/m 14,1 km/h (3 Bft) W-SW 241 0 min 0,000 mm 0,0 UV-I 0 W/m 2,8 C -1,3 C 24,1 km/h (4 Bft) 94,74 %
17.04.2017 00:34 4,3 C 90 % 1018,6 hPa 0,0 l/m 14,0 km/h (3 Bft) W-SW 238 0 min 0,000 mm 0,0 UV-I 0 W/m 2,8 C -1,2 C 19,3 km/h (3 Bft) 94,87 %
17.04.2017 00:36 4,2 C 90 % 1018,6 hPa 0,0 l/m 12,7 km/h (3 Bft) SW 216 0 min 0,000 mm 0,0 UV-I 0 W/m 2,7 C -0,6 C 22,5 km/h (4 Bft) 94,74 %
17.04.2017 00:38 4,2 C 91 % 1018,6 hPa 0,0 l/m 13,1 km/h (3 Bft) W-SW 252 0 min 0,000 mm 0,0 UV-I 0 W/m 2,9 C -0,8 C 17,7 km/h (3 Bft) 100,00 %
17.04.2017 00:40 4,2 C 91 % 1018,6 hPa 0,0 l/m 11,7 km/h (2 Bft) SW 234 0 min 0,000 mm 0,0 UV-I 0 W/m 2,9 C 0,0 C 16,1 km/h (3 Bft) 97,56 %
17.04.2017 00:42 4,2 C 91 % 1018,6 hPa 0,0 l/m 13,0 km/h (3 Bft) SW 232 0 min 0,000 mm 0,0 UV-I 0 W/m 2,9 C -0,8 C 16,1 km/h (3 Bft) 98,46 %
17.04.2017 00:44 4,2 C 91 % 1018,6 hPa 0,0 l/m 11,8 km/h (2 Bft) SW 236 0 min 0,000 mm 0,0 UV-I 0 W/m 2,9 C -0,0 C 16,1 km/h (3 Bft) 100,00 %
17.04.2017 00:46 4,2 C 91 % 1018,7 hPa 0,0 l/m 11,9 km/h (2 Bft) W 259 0 min 0,000 mm 0,0 UV-I 0 W/m 2,9 C -0,1 C 17,7 km/h (3 Bft) 94,29 %
17.04.2017 00:48 4,2 C 91 % 1018,6 hPa 0,0 l/m 12,7 km/h (3 Bft) W-SW 256 0 min 0,000 mm 0,0 UV-I 0 W/m 2,9 C -0,6 C 22,5 km/h (4 Bft) 100,00 %
17.04.2017 00:50 4,2 C 91 % 1018,7 hPa 0,0 l/m 13,2 km/h (3 Bft) W-SW 252 0 min 0,000 mm 0,0 UV-I 0 W/m 2,9 C -0,9 C 22,5 km/h (4 Bft) 96,43 %
17.04.2017 00:52 4,2 C 91 % 1018,6 hPa 0,0 l/m 12,6 km/h (3 Bft) W-SW 252 0 min 0,000 mm 0,0 UV-I 0 W/m 2,9 C -0,5 C 19,3 km/h (3 Bft) 98,11 %
17.04.2017 00:54 4,2 C 91 % 1018,7 hPa 0,0 l/m 12,5 km/h (3 Bft) W 259 0 min 0,000 mm 0,0 UV-I 0 W/m 2,9 C -0,5 C 19,3 km/h (3 Bft) 95,12 %
17.04.2017 00:56 4,2 C 91 % 1018,7 hPa 0,0 l/m 11,0 km/h (2 Bft) W-SW 254 0 min 0,000 mm 0,0 UV-I 0 W/m 2,9 C 0,5 C 16,1 km/h (3 Bft) 100,00 %
17.04.2017 00:58 4,2 C 91 % 1018,6 hPa 0,0 l/m 9,7 km/h (2 Bft) W-SW 237 0 min 0,000 mm 0,0 UV-I 0 W/m 2,9 C 1,4 C 14,5 km/h (3 Bft) 98,00 %
17.04.2017 01:00 4,2 C 91 % 1018,7 hPa 0,0 l/m 12,6 km/h (3 Bft) W-SW 250 0 min 0,025 mm 0,0 UV-I 0 W/m 2,9 C -0,5 C 19,3 km/h (3 Bft) 98,11 %
17.04.2017 01:02 4,2 C 91 % 1018,7 hPa 0,0 l/m 11,5 km/h (2 Bft) W 259 0 min 0,000 mm 0,0 UV-I 0 W/m 2,9 C 0,2 C 17,7 km/h (3 Bft) 95,74 %
17.04.2017 01:04 4,2 C 91 % 1018,7 hPa 0,0 l/m 13,5 km/h (3 Bft) SW 236 0 min 0,000 mm 0,0 UV-I 0 W/m 2,9 C -1,1 C 17,7 km/h (3 Bft) 97,56 %
17.04.2017 01:06 4,2 C 91 % 1018,7 hPa 0,0 l/m 11,6 km/h (2 Bft) W-SW 243 0 min 0,000 mm 0,0 UV-I 0 W/m 2,9 C 0,1 C 17,7 km/h (3 Bft) 100,00 %
17.04.2017 01:08 4,2 C 91 % 1018,7 hPa 0,0 l/m 9,4 km/h (2 Bft) W 264 0 min 0,000 mm 0,0 UV-I 0 W/m 2,9 C 1,6 C 12,9 km/h (3 Bft) 98,31 %
17.04.2017 01:10 4,2 C 91 % 1018,7 hPa 0,0 l/m 8,7 km/h (2 Bft) W-SW 242 0 min 0,000 mm 0,0 UV-I 0 W/m 2,9 C 2,2 C 12,9 km/h (3 Bft) 100,00 %
17.04.2017 01:12 4,2 C 91 % 1018,7 hPa 0,0 l/m 8,7 km/h (2 Bft) SW 229 0 min 0,000 mm 0,0 UV-I 0 W/m 2,9 C 2,2 C 14,5 km/h (3 Bft) 98,18 %
17.04.2017 01:14 4,2 C 91 % 1018,7 hPa 0,0 l/m 6,1 km/h (2 Bft) W-SW 252 0 min 0,000 mm 0,0 UV-I 0 W/m 2,9 C 4,2 C 9,7 km/h (2 Bft) 100,00 %
17.04.2017 01:16 4,2 C 91 % 1018,6 hPa 0,0 l/m 8,0 km/h (2 Bft) W-SW 257 0 min 0,000 mm 0,0 UV-I 0 W/m 2,9 C 2,8 C 12,9 km/h (3 Bft) 97,96 %
17.04.2017 01:18 4,2 C 92 % 1018,7 hPa 0,0 l/m 9,7 km/h (2 Bft) S-SW 210 0 min 0,000 mm 0,0 UV-I 0 W/m 3,0 C 1,4 C 14,5 km/h (3 Bft) 96,23 %
17.04.2017 01:20 4,2 C 92 % 1018,6 hPa 0,0 l/m 11,0 km/h (2 Bft) W-SW 247 0 min 0,000 mm 0,0 UV-I 0 W/m 3,0 C 0,5 C 16,1 km/h (3 Bft) 100,00 %
17.04.2017 01:22 4,2 C 92 % 1018,7 hPa 0,0 l/m 9,5 km/h (2 Bft) SW 215 0 min 0,000 mm 0,0 UV-I 0 W/m 3,0 C 1,6 C 14,5 km/h (3 Bft) 92,68 %
17.04.2017 01:24 4,2 C 92 % 1018,7 hPa 0,0 l/m 10,1 km/h (2 Bft) W-SW 239 0 min 0,000 mm 0,0 UV-I 0 W/m 3,0 C 1,1 C 12,9 km/h (3 Bft) 98,18 %
17.04.2017 01:26 4,2 C 92 % 1018,7 hPa 0,0 l/m 8,5 km/h (2 Bft) W-SW 252 0 min 0,000 mm 0,0 UV-I 0 W/m 3,0 C 2,3 C 12,9 km/h (3 Bft) 97,56 %
17.04.2017 01:28 4,2 C 92 % 1018,7 hPa 0,0 l/m 10,5 km/h (2 Bft) S-SW 211 0 min 0,000 mm 0,0 UV-I 0 W/m 3,0 C 0,8 C 16,1 km/h (3 Bft) 100,00 %
17.04.2017 01:30 4,2 C 92 % 1018,7 hPa 0,0 l/m 10,9 km/h (2 Bft) W-SW 253 0 min 0,000 mm 0,0 UV-I 0 W/m 3,0 C 0,6 C 17,7 km/h (3 Bft) 97,87 %
17.04.2017 01:32 4,2 C 93 % 1018,7 hPa 0,0 l/m 9,0 km/h (2 Bft) W-SW 244 0 min 0,000 mm 0,0 UV-I 0 W/m 3,2 C 1,9 C 12,9 km/h (3 Bft) 98,00 %
17.04.2017 01:34 4,2 C 93 % 1018,6 hPa 0,0 l/m 7,8 km/h (2 Bft) W-SW 255 0 min 0,000 mm 0,0 UV-I 0 W/m 3,2 C 2,9 C 12,9 km/h (3 Bft) 100,00 %
17.04.2017 01:36 4,2 C 93 % 1018,6 hPa 0,0 l/m 9,6 km/h (2 Bft) W-SW 244 0 min 0,000 mm 0,0 UV-I 0 W/m 3,2 C 1,5 C 16,1 km/h (3 Bft) 95,45 %
17.04.2017 01:38 4,2 C 93 % 1018,6 hPa 0,0 l/m 13,1 km/h (3 Bft) S-SW 213 0 min 0,000 mm 0,0 UV-I 0 W/m 3,2 C -0,8 C 17,7 km/h (3 Bft) 97,37 %
17.04.2017 01:40 4,1 C 93 % 1018,6 hPa 0,2 l/m 11,7 km/h (2 Bft) W-SW 257 0 min 0,000 mm 0,0 UV-I 0 W/m 3,1 C -0,1 C 17,7 km/h (3 Bft) 98,00 %
17.04.2017 01:42 4,1 C 93 % 1018,6 hPa 0,0 l/m 12,3 km/h (3 Bft) W 261 0 min 0,000 mm 0,0 UV-I 0 W/m 3,1 C -0,5 C 17,7 km/h (3 Bft) 100,00 %
17.04.2017 01:44 4,1 C 93 % 1018,6 hPa 0,0 l/m 13,6 km/h (3 Bft) W-SW 252 0 min 0,000 mm 0,0 UV-I 0 W/m 3,1 C -1,2 C 19,3 km/h (3 Bft) 96,00 %
17.04.2017 01:46 4,1 C 93 % 1018,6 hPa 0,0 l/m 11,3 km/h (2 Bft) W-SW 258 0 min 0,000 mm 0,0 UV-I 0 W/m 3,1 C 0,2 C 16,1 km/h (3 Bft) 95,74 %
17.04.2017 01:48 4,1 C 93 % 1018,7 hPa 0,0 l/m 10,5 km/h (2 Bft) W-SW 242 0 min 0,000 mm 0,0 UV-I 0 W/m 3,1 C 0,7 C 12,9 km/h (3 Bft) 97,73 %
17.04.2017 01:50 4,1 C 93 % 1018,7 hPa 0,0 l/m 9,6 km/h (2 Bft) W 268 0 min 0,000 mm 0,0 UV-I 0 W/m 3,1 C 1,4 C 14,5 km/h (3 Bft) 94,00 %
17.04.2017 01:52 4,1 C 93 % 1018,6 hPa 0,0 l/m 9,2 km/h (2 Bft) W-SW 239 0 min 0,000 mm 0,0 UV-I 0 W/m 3,1 C 1,7 C 12,9 km/h (3 Bft) 97,56 %
17.04.2017 01:54 4,1 C 93 % 1018,7 hPa 0,0 l/m 7,6 km/h (2 Bft) W-SW 241 0 min 0,000 mm 0,0 UV-I 0 W/m 3,1 C 3,0 C 11,3 km/h (2 Bft) 96,43 %
17.04.2017 01:56 4,1 C 93 % 1018,7 hPa 0,0 l/m 9,8 km/h (2 Bft) W-SW 248 0 min 0,000 mm 0,0 UV-I 0 W/m 3,1 C 1,2 C 14,5 km/h (3 Bft) 95,74 %
17.04.2017 01:58 4,1 C 93 % 1018,6 hPa 0,0 l/m 12,4 km/h (3 Bft) W-SW 255 0 min 0,000 mm 0,0 UV-I 0 W/m 3,1 C -0,5 C 17,7 km/h (3 Bft) 97,22 %
17.04.2017 02:00 4,1 C 93 % 1018,6 hPa 0,0 l/m 10,3 km/h (2 Bft) W-SW 258 0 min 0,000 mm 0,0 UV-I 0 W/m 3,1 C 0,9 C 16,1 km/h (3 Bft) 95,45 %
17.04.2017 02:02 4,1 C 93 % 1018,6 hPa 0,0 l/m 10,8 km/h (2 Bft) SW 230 0 min 0,000 mm 0,0 UV-I 0 W/m 3,1 C 0,5 C 19,3 km/h (3 Bft) 98,11 %
17.04.2017 02:04 4,1 C 93 % 1018,6 hPa 0,0 l/m 9,0 km/h (2 Bft) W-SW 244 0 min 0,000 mm 0,0 UV-I 0 W/m 3,1 C 1,8 C 12,9 km/h (3 Bft) 96,00 %
17.04.2017 02:06 4,1 C 93 % 1018,5 hPa 0,0 l/m 9,0 km/h (2 Bft) W 260 0 min 0,000 mm 0,0 UV-I 0 W/m 3,1 C 1,8 C 14,5 km/h (3 Bft) 97,56 %
17.04.2017 02:08 4,1 C 93 % 1018,6 hPa 0,0 l/m 9,6 km/h (2 Bft) W-SW 245 0 min 0,000 mm 0,0 UV-I 0 W/m 3,1 C 1,4 C 12,9 km/h (3 Bft) 96,23 %
17.04.2017 02:10 4,1 C 93 % 1018,6 hPa 0,0 l/m 9,5 km/h (2 Bft) SW 218 0 min 0,000 mm 0,0 UV-I 0 W/m 3,1 C 1,4 C 14,5 km/h (3 Bft) 98,00 %
17.04.2017 02:12 4,2 C 93 % 1018,5 hPa 0,0 l/m 9,9 km/h (2 Bft) S-SW 212 0 min 0,000 mm 0,0 UV-I 0 W/m 3,2 C 1,3 C 16,1 km/h (3 Bft) 97,56 %
17.04.2017 02:14 4,2 C 93 % 1018,5 hPa 0,0 l/m 10,9 km/h (2 Bft) SW 230 0 min 0,000 mm 0,0 UV-I 0 W/m 3,2 C 0,6 C 16,1 km/h (3 Bft) 97,56 %
17.04.2017 02:16 4,2 C 93 % 1018,5 hPa 0,0 l/m 9,4 km/h (2 Bft) W-SW 248 0 min 0,000 mm 0,0 UV-I 0 W/m 3,2 C 1,6 C 14,5 km/h (3 Bft) 96,23 %
17.04.2017 02:18 4,2 C 93 % 1018,5 hPa 0,0 l/m 6,6 km/h (2 Bft) SW 236 0 min 0,000 mm 0,0 UV-I 0 W/m 3,2 C 4,0 C 11,3 km/h (2 Bft) 98,11 %
17.04.2017 02:20 4,2 C 94 % 1018,5 hPa 0,0 l/m 6,6 km/h (2 Bft) SW 228 0 min 0,000 mm 0,0 UV-I 0 W/m 3,3 C 4,0 C 14,5 km/h (3 Bft) 91,30 %
17.04.2017 02:22 4,2 C 94 % 1018,4 hPa 0,2 l/m 7,5 km/h (2 Bft) SW 236 0 min 0,000 mm 0,0 UV-I 0 W/m 3,3 C 3,2 C 11,3 km/h (2 Bft) 98,59 %
17.04.2017 02:24 4,2 C 94 % 1018,5 hPa 0,0 l/m 8,7 km/h (2 Bft) W-SW 250 0 min 0,000 mm 0,0 UV-I 0 W/m 3,3 C 2,2 C 14,5 km/h (3 Bft) 100,00 %
17.04.2017 02:26 4,2 C 94 % 1018,4 hPa 0,0 l/m 8,4 km/h (2 Bft) W-SW 251 0 min 0,000 mm 0,0 UV-I 0 W/m 3,3 C 2,4 C 12,9 km/h (3 Bft) 98,00 %
17.04.2017 02:28 4,2 C 94 % 1018,4 hPa 0,0 l/m 8,2 km/h (2 Bft) SW 214 0 min 0,000 mm 0,0 UV-I 0 W/m 3,3 C 2,6 C 12,9 km/h (3 Bft) 97,73 %
17.04.2017 02:30 4,2 C 94 % 1018,4 hPa 0,0 l/m 6,5 km/h (2 Bft) SW 236 0 min 0,000 mm 0,0 UV-I 0 W/m 3,3 C 4,1 C 12,9 km/h (3 Bft) 97,62 %
17.04.2017 02:32 4,3 C 94 % 1018,4 hPa 0,0 l/m 11,0 km/h (2 Bft) SW 226 0 min 0,000 mm 0,0 UV-I 0 W/m 3,4 C 0,6 C 17,7 km/h (3 Bft) 98,18 %
17.04.2017 02:34 4,3 C 94 % 1018,4 hPa 0,0 l/m 9,2 km/h (2 Bft) W-SW 243 0 min 0,000 mm 0,0 UV-I 0 W/m 3,4 C 1,9 C 12,9 km/h (3 Bft) 100,00 %
17.04.2017 02:36 4,2 C 94 % 1018,4 hPa 0,0 l/m 10,5 km/h (2 Bft) SW 236 0 min 0,000 mm 0,0 UV-I 0 W/m 3,3 C 0,8 C 17,7 km/h (3 Bft) 97,37 %
17.04.2017 02:38 4,2 C 94 % 1018,3 hPa 0,0 l/m 9,0 km/h (2 Bft) SW 217 0 min 0,000 mm 0,0 UV-I 0 W/m 3,3 C 1,9 C 14,5 km/h (3 Bft) 100,00 %
17.04.2017 02:40 4,2 C 94 % 1018,3 hPa 0,0 l/m 8,1 km/h (2 Bft) SW 229 0 min 0,000 mm 0,0 UV-I 0 W/m 3,3 C 2,7 C 11,3 km/h (2 Bft) 96,43 %
17.04.2017 02:42 4,2 C 94 % 1018,3 hPa 0,0 l/m 8,5 km/h (2 Bft) S-SW 210 0 min 0,000 mm 0,0 UV-I 0 W/m 3,3 C 2,3 C 12,9 km/h (3 Bft) 100,00 %
17.04.2017 02:44 4,2 C 94 % 1018,2 hPa 0,0 l/m 9,5 km/h (2 Bft) W-SW 237 0 min 0,000 mm 0,0 UV-I 0 W/m 3,3 C 1,6 C 16,1 km/h (3 Bft) 94,64 %
17.04.2017 02:46 4,2 C 94 % 1018,2 hPa 0,0 l/m 10,0 km/h (2 Bft) SW 234 0 min 0,000 mm 0,0 UV-I 0 W/m 3,3 C 1,2 C 14,5 km/h (3 Bft) 95,74 %
17.04.2017 02:48 4,2 C 94 % 1018,2 hPa 0,0 l/m 12,4 km/h (3 Bft) W-SW 244 0 min 0,000 mm 0,0 UV-I 0 W/m 3,3 C -0,4 C 19,3 km/h (3 Bft) 100,00 %
17.04.2017 02:50 4,2 C 94 % 1018,2 hPa 0,0 l/m 9,6 km/h (2 Bft) W-SW 241 0 min 0,000 mm 0,0 UV-I 0 W/m 3,3 C 1,5 C 17,7 km/h (3 Bft) 98,00 %
17.04.2017 02:52 4,2 C 94 % 1018,3 hPa 0,0 l/m 11,6 km/h (2 Bft) W-SW 244 0 min 0,000 mm 0,0 UV-I 0 W/m 3,3 C 0,1 C 17,7 km/h (3 Bft) 100,00 %
17.04.2017 02:54 4,2 C 94 % 1018,2 hPa 0,0 l/m 12,9 km/h (3 Bft) S-SW 211 0 min 0,000 mm 0,0 UV-I 0 W/m 3,3 C -0,7 C 20,9 km/h (4 Bft) 98,00 %
17.04.2017 02:56 4,2 C 94 % 1018,2 hPa 0,0 l/m 10,1 km/h (2 Bft) SW 225 0 min 0,000 mm 0,0 UV-I 0 W/m 3,3 C 1,1 C 14,5 km/h (3 Bft) 100,00 %
17.04.2017 02:58 4,2 C 94 % 1018,2 hPa 0,0 l/m 10,0 km/h (2 Bft) S 187 0 min 0,000 mm 0,0 UV-I 0 W/m 3,3 C 1,2 C 16,1 km/h (3 Bft) 98,21 %
17.04.2017 03:00 4,2 C 94 % 1018,2 hPa 0,0 l/m 9,7 km/h (2 Bft) SW 228 0 min 0,000 mm 0,0 UV-I 0 W/m 3,3 C 1,4 C 16,1 km/h (3 Bft) 97,56 %
17.04.2017 03:02 4,2 C 94 % 1018,2 hPa 0,0 l/m 12,9 km/h (3 Bft) S-SW 200 0 min 0,000 mm 0,0 UV-I 0 W/m 3,3 C -0,7 C 19,3 km/h (3 Bft) 100,00 %
17.04.2017 03:04 4,2 C 94 % 1018,2 hPa 0,0 l/m 8,7 km/h (2 Bft) SW 224 0 min 0,000 mm 0,0 UV-I 0 W/m 3,3 C 2,2 C 14,5 km/h (3 Bft) 100,00 %
17.04.2017 03:06 4,1 C 94 % 1018,2 hPa 0,0 l/m 11,9 km/h (2 Bft) SW 219 0 min 0,000 mm 0,0 UV-I 0 W/m 3,2 C -0,2 C 16,1 km/h (3 Bft) 95,12 %
17.04.2017 03:08 4,2 C 94 % 1018,2 hPa 0,0 l/m 10,1 km/h (2 Bft) S-SW 198 0 min 0,000 mm 0,0 UV-I 0 W/m 3,3 C 1,1 C 12,9 km/h (3 Bft) 97,73 %
17.04.2017 03:10 4,1 C 94 % 1018,2 hPa 0,0 l/m 11,5 km/h (2 Bft) W-SW 243 0 min 0,000 mm 0,0 UV-I 0 W/m 3,2 C 0,0 C 19,3 km/h (3 Bft) 98,21 %
17.04.2017 03:12 4,2 C 93 % 1018,0 hPa 0,0 l/m 13,3 km/h (3 Bft) SW 226 0 min 0,000 mm 0,0 UV-I 0 W/m 3,2 C -1,0 C 19,3 km/h (3 Bft) 97,22 %
17.04.2017 03:14 4,1 C 93 % 1018,1 hPa 0,0 l/m 11,6 km/h (2 Bft) SW 233 0 min 0,000 mm 0,0 UV-I 0 W/m 3,1 C -0,0 C 16,1 km/h (3 Bft) 100,00 %
17.04.2017 03:16 4,1 C 93 % 1018,1 hPa 0,0 l/m 14,6 km/h (3 Bft) W-SW 249 0 min 0,000 mm 0,0 UV-I 0 W/m 3,1 C -1,8 C 20,9 km/h (4 Bft) 98,11 %
17.04.2017 03:18 4,1 C 93 % 1018,1 hPa 0,0 l/m 11,9 km/h (2 Bft) W-SW 253 0 min 0,000 mm 0,0 UV-I 0 W/m 3,1 C -0,2 C 17,7 km/h (3 Bft) 97,62 %
17.04.2017 03:20 4,2 C 93 % 1018,1 hPa 0,0 l/m 14,6 km/h (3 Bft) SW 233 0 min 0,000 mm 0,0 UV-I 0 W/m 3,2 C -1,7 C 24,1 km/h (4 Bft) 93,10 %
17.04.2017 03:22 4,2 C 93 % 1018,0 hPa 0,0 l/m 12,1 km/h (2 Bft) SW 219 0 min 0,000 mm 0,0 UV-I 0 W/m 3,2 C -0,2 C 16,1 km/h (3 Bft) 95,59 %
17.04.2017 03:24 4,1 C 93 % 1018,0 hPa 0,0 l/m 10,4 km/h (2 Bft) SW 220 0 min 0,000 mm 0,0 UV-I 0 W/m 3,1 C 0,8 C 17,7 km/h (3 Bft) 93,18 %
17.04.2017 03:26 4,1 C 93 % 1018,0 hPa 0,0 l/m 12,1 km/h (2 Bft) W-SW 243 0 min 0,000 mm 0,0 UV-I 0 W/m 3,1 C -0,3 C 19,3 km/h (3 Bft) 96,00 %
17.04.2017 03:28 4,1 C 93 % 1018,0 hPa 0,0 l/m 11,6 km/h (2 Bft) SW 229 0 min 0,000 mm 0,0 UV-I 0 W/m 3,1 C -0,0 C 19,3 km/h (3 Bft) 97,37 %
17.04.2017 03:30 4,1 C 93 % 1018,0 hPa 0,0 l/m 9,9 km/h (2 Bft) W-SW 238 0 min 0,000 mm 0,0 UV-I 0 W/m 3,1 C 1,2 C 16,1 km/h (3 Bft) 94,34 %
17.04.2017 03:32 4,1 C 93 % 1018,0 hPa 0,0 l/m 10,4 km/h (2 Bft) SW 216 0 min 0,000 mm 0,0 UV-I 0 W/m 3,1 C 0,8 C 22,5 km/h (4 Bft) 93,18 %
17.04.2017 03:34 4,1 C 93 % 1018,0 hPa 0,0 l/m 9,8 km/h (2 Bft) W-SW 242 0 min 0,000 mm 0,0 UV-I 0 W/m 3,1 C 1,2 C 16,1 km/h (3 Bft) 96,23 %
17.04.2017 03:36 4,2 C 93 % 1017,9 hPa 0,0 l/m 11,8 km/h (2 Bft) S-SW 208 0 min 0,000 mm 0,0 UV-I 0 W/m 3,2 C -0,0 C 22,5 km/h (4 Bft) 89,47 %
17.04.2017 03:38 4,2 C 93 % 1017,9 hPa 0,0 l/m 10,9 km/h (2 Bft) W-SW 247 0 min 0,000 mm 0,0 UV-I 0 W/m 3,2 C 0,6 C 14,5 km/h (3 Bft) 96,43 %
17.04.2017 03:40 4,1 C 93 % 1017,9 hPa 0,0 l/m 13,5 km/h (3 Bft) SW 236 0 min 0,000 mm 0,0 UV-I 0 W/m 3,1 C -1,2 C 22,5 km/h (4 Bft) 95,12 %
17.04.2017 03:42 4,1 C 93 % 1017,9 hPa 0,0 l/m 14,0 km/h (3 Bft) W-SW 247 0 min 0,000 mm 0,0 UV-I 0 W/m 3,1 C -1,5 C 22,5 km/h (4 Bft) 97,87 %
17.04.2017 03:44 4,1 C 93 % 1017,9 hPa 0,0 l/m 13,2 km/h (3 Bft) SW 233 0 min 0,000 mm 0,0 UV-I 0 W/m 3,1 C -1,0 C 19,3 km/h (3 Bft) 93,62 %
17.04.2017 03:46 4,1 C 93 % 1017,9 hPa 0,0 l/m 13,4 km/h (3 Bft) S-SW 207 0 min 0,000 mm 0,0 UV-I 0 W/m 3,1 C -1,1 C 19,3 km/h (3 Bft) 94,74 %
17.04.2017 03:48 4,1 C 92 % 1017,9 hPa 0,0 l/m 15,5 km/h (3 Bft) SW 228 0 min 0,000 mm 0,0 UV-I 0 W/m 2,9 C -2,3 C 22,5 km/h (4 Bft) 94,64 %
17.04.2017 03:50 4,1 C 92 % 1017,9 hPa 0,0 l/m 14,6 km/h (3 Bft) W-SW 252 0 min 0,000 mm 0,0 UV-I 0 W/m 2,9 C -1,8 C 22,5 km/h (4 Bft) 93,18 %
17.04.2017 03:52 4,1 C 92 % 1017,9 hPa 0,0 l/m 13,2 km/h (3 Bft) W-SW 244 0 min 0,000 mm 0,0 UV-I 0 W/m 2,9 C -1,0 C 22,5 km/h (4 Bft) 94,00 %
17.04.2017 03:54 4,1 C 92 % 1017,9 hPa 0,0 l/m 12,8 km/h (3 Bft) SW 220 0 min 0,000 mm 0,0 UV-I 0 W/m 2,9 C -0,8 C 20,9 km/h (4 Bft) 94,00 %
17.04.2017 03:56 4,1 C 92 % 1017,9 hPa 0,0 l/m 11,8 km/h (2 Bft) SW 226 0 min 0,000 mm 0,0 UV-I 0 W/m 2,9 C -0,2 C 17,7 km/h (3 Bft) 93,62 %
17.04.2017 03:58 4,1 C 92 % 1017,9 hPa 0,0 l/m 8,5 km/h (2 Bft) W-SW 238 0 min 0,000 mm 0,0 UV-I 0 W/m 2,9 C 2,2 C 14,5 km/h (3 Bft) 97,62 %
17.04.2017 04:00 4,1 C 92 % 1017,9 hPa 0,0 l/m 9,7 km/h (2 Bft) SW 222 0 min 0,000 mm 0,0 UV-I 0 W/m 2,9 C 1,3 C 16,1 km/h (3 Bft) 95,45 %
17.04.2017 04:04 4,1 C 92 % 1017,9 hPa 0,0 l/m 10,0 km/h (2 Bft) W-SW 241 0 min 0,000 mm 0,0 UV-I 0 W/m 2,9 C 1,1 C 19,3 km/h (3 Bft) 95,24 %
17.04.2017 04:06 4,1 C 92 % 1017,9 hPa 0,0 l/m 10,7 km/h (2 Bft) SW 214 0 min 0,000 mm 0,0 UV-I 0 W/m 2,9 C 0,6 C 17,7 km/h (3 Bft) 92,45 %
17.04.2017 04:08 4,1 C 92 % 1017,8 hPa 0,0 l/m 10,7 km/h (2 Bft) S-SW 198 0 min 0,000 mm 0,0 UV-I 0 W/m 2,9 C 0,6 C 17,7 km/h (3 Bft) 95,12 %
17.04.2017 04:10 4,1 C 92 % 1017,8 hPa 0,0 l/m 11,1 km/h (2 Bft) SW 230 0 min 0,000 mm 0,0 UV-I 0 W/m 2,9 C 0,3 C 20,9 km/h (4 Bft) 92,00 %
17.04.2017 04:12 4,1 C 92 % 1017,9 hPa 0,0 l/m 11,2 km/h (2 Bft) S-SW 194 0 min 0,000 mm 0,0 UV-I 0 W/m 2,9 C 0,2 C 17,7 km/h (3 Bft) 93,18 %
17.04.2017 04:14 4,1 C 92 % 1017,8 hPa 0,0 l/m 8,2 km/h (2 Bft) W-SW 238 0 min 0,000 mm 0,0 UV-I 0 W/m 2,9 C 2,5 C 12,9 km/h (3 Bft) 95,45 %
17.04.2017 04:16 4,1 C 92 % 1017,8 hPa 0,0 l/m 9,2 km/h (2 Bft) SW 234 0 min 0,000 mm 0,0 UV-I 0 W/m 2,9 C 1,7 C 12,9 km/h (3 Bft) 93,62 %
17.04.2017 04:18 4,1 C 92 % 1017,7 hPa 0,0 l/m 9,1 km/h (2 Bft) W 266 0 min 0,000 mm 0,0 UV-I 0 W/m 2,9 C 1,8 C 12,9 km/h (3 Bft) 91,07 %
17.04.2017 04:20 4,1 C 92 % 1017,8 hPa 0,0 l/m 9,9 km/h (2 Bft) S-SW 195 0 min 0,000 mm 0,0 UV-I 0 W/m 2,9 C 1,2 C 17,7 km/h (3 Bft) 92,31 %
17.04.2017 04:22 4,1 C 92 % 1017,7 hPa 0,0 l/m 9,6 km/h (2 Bft) SW 226 0 min 0,000 mm 0,0 UV-I 0 W/m 2,9 C 1,4 C 14,5 km/h (3 Bft) 96,61 %
17.04.2017 04:24 4,1 C 92 % 1017,7 hPa 0,0 l/m 7,6 km/h (2 Bft) SW 215 0 min 0,000 mm 0,0 UV-I 0 W/m 2,9 C 3,0 C 11,3 km/h (2 Bft) 96,00 %
17.04.2017 04:26 4,1 C 92 % 1017,7 hPa 0,0 l/m 10,2 km/h (2 Bft) SW 225 0 min 0,000 mm 0,0 UV-I 0 W/m 2,9 C 0,9 C 16,1 km/h (3 Bft) 97,73 %
17.04.2017 04:28 4,1 C 92 % 1017,6 hPa 0,0 l/m 9,6 km/h (2 Bft) SW 223 0 min 0,000 mm 0,0 UV-I 0 W/m 2,9 C 1,4 C 14,5 km/h (3 Bft) 98,11 %
17.04.2017 04:30 4,1 C 92 % 1017,7 hPa 0,0 l/m 9,8 km/h (2 Bft) W-SW 239 0 min 0,000 mm 0,0 UV-I 0 W/m 2,9 C 1,2 C 16,1 km/h (3 Bft) 97,73 %
17.04.2017 04:32 4,1 C 92 % 1017,7 hPa 0,0 l/m 10,5 km/h (2 Bft) S 190 0 min 0,000 mm 0,0 UV-I 0 W/m 2,9 C 0,7 C 16,1 km/h (3 Bft) 100,00 %
17.04.2017 04:34 4,1 C 92 % 1017,7 hPa 0,0 l/m 8,9 km/h (2 Bft) SW 215 0 min 0,000 mm 0,0 UV-I 0 W/m 2,9 C 1,9 C 16,1 km/h (3 Bft) 92,45 %
17.04.2017 04:36 4,1 C 92 % 1017,7 hPa 0,0 l/m 9,9 km/h (2 Bft) W-SW 238 0 min 0,000 mm 0,0 UV-I 0 W/m 2,9 C 1,2 C 16,1 km/h (3 Bft) 95,24 %
17.04.2017 04:38 4,2 C 92 % 1017,6 hPa 0,0 l/m 9,0 km/h (2 Bft) S 187 0 min 0,000 mm 0,0 UV-I 0 W/m 3,0 C 1,9 C 14,5 km/h (3 Bft) 100,00 %
17.04.2017 04:40 4,2 C 92 % 1017,6 hPa 0,0 l/m 9,5 km/h (2 Bft) SW 234 0 min 0,000 mm 0,0 UV-I 0 W/m 3,0 C 1,6 C 17,7 km/h (3 Bft) 97,56 %
17.04.2017 04:42 4,2 C 92 % 1017,6 hPa 0,0 l/m 9,5 km/h (2 Bft) SW 227 0 min 0,000 mm 0,0 UV-I 0 W/m 3,0 C 1,6 C 17,7 km/h (3 Bft) 100,00 %
17.04.2017 04:44 4,2 C 92 % 1017,6 hPa 0,0 l/m 12,7 km/h (3 Bft) S-SW 202 0 min 0,000 mm 0,0 UV-I 0 W/m 3,0 C -0,6 C 17,7 km/h (3 Bft) 97,73 %
17.04.2017 04:46 4,2 C 92 % 1017,7 hPa 0,0 l/m 9,6 km/h (2 Bft) S-SW 192 0 min 0,000 mm 0,0 UV-I 0 W/m 3,0 C 1,5 C 17,7 km/h (3 Bft) 100,00 %
17.04.2017 04:48 4,2 C 92 % 1017,6 hPa 0,0 l/m 11,2 km/h (2 Bft) SW 217 0 min 0,000 mm 0,0 UV-I 0 W/m 3,0 C 0,4 C 19,3 km/h (3 Bft) 100,00 %
17.04.2017 04:50 4,2 C 92 % 1017,6 hPa 0,0 l/m 10,3 km/h (2 Bft) SW 225 0 min 0,000 mm 0,0 UV-I 0 W/m 3,0 C 1,0 C 17,7 km/h (3 Bft) 100,00 %
17.04.2017 04:52 4,2 C 92 % 1017,7 hPa 0,0 l/m 11,8 km/h (2 Bft) SW 227 0 min 0,000 mm 0,0 UV-I 0 W/m 3,0 C -0,0 C 17,7 km/h (3 Bft) 100,00 %
17.04.2017 04:54 4,2 C 92 % 1017,6 hPa 0,0 l/m 8,5 km/h (2 Bft) W-SW 239 0 min 0,000 mm 0,0 UV-I 0 W/m 3,0 C 2,3 C 14,5 km/h (3 Bft) 96,55 %
17.04.2017 04:56 4,2 C 92 % 1017,7 hPa 0,0 l/m 11,6 km/h (2 Bft) SW 225 0 min 0,000 mm 0,0 UV-I 0 W/m 3,0 C 0,1 C 16,1 km/h (3 Bft) 100,00 %
17.04.2017 04:58 4,2 C 92 % 1017,6 hPa 0,0 l/m 11,1 km/h (2 Bft) SW 214 0 min 0,000 mm 0,0 UV-I 0 W/m 3,0 C 0,4 C 16,1 km/h (3 Bft) 95,45 %
17.04.2017 05:00 4,2 C 92 % 1017,7 hPa 0,0 l/m 12,8 km/h (3 Bft) S-SW 208 0 min 0,000 mm 0,0 UV-I 0 W/m 3,0 C -0,7 C 22,5 km/h (4 Bft) 100,00 %
17.04.2017 05:02 4,2 C 92 % 1017,6 hPa 0,0 l/m 12,5 km/h (3 Bft) W-SW 237 0 min 0,000 mm 0,0 UV-I 0 W/m 3,0 C -0,5 C 22,5 km/h (4 Bft) 97,56 %
17.04.2017 05:04 4,2 C 92 % 1017,6 hPa 0,0 l/m 16,9 km/h (3 Bft) SW 228 0 min 0,000 mm 0,0 UV-I 0 W/m 3,0 C -2,8 C 27,4 km/h (4 Bft) 100,00 %
17.04.2017 05:06 4,2 C 92 % 1017,6 hPa 0,0 l/m 12,3 km/h (3 Bft) SW 231 0 min 0,000 mm 0,0 UV-I 0 W/m 3,0 C -0,4 C 17,7 km/h (3 Bft) 97,73 %
17.04.2017 05:08 4,2 C 92 % 1017,6 hPa 0,0 l/m 11,8 km/h (2 Bft) SW 235 0 min 0,000 mm 0,0 UV-I 0 W/m 3,0 C -0,0 C 17,7 km/h (3 Bft) 100,00 %
17.04.2017 05:10 4,2 C 92 % 1017,6 hPa 0,2 l/m 9,5 km/h (2 Bft) W-SW 243 0 min 0,000 mm 0,0 UV-I 0 W/m 3,0 C 1,6 C 12,9 km/h (3 Bft) 98,00 %
17.04.2017 05:12 4,3 C 93 % 1017,6 hPa 0,0 l/m 10,4 km/h (2 Bft) W-SW 242 0 min 0,000 mm 0,0 UV-I 0 W/m 3,3 C 1,0 C 16,1 km/h (3 Bft) 95,56 %
17.04.2017 05:14 4,2 C 93 % 1017,6 hPa 0,0 l/m 9,7 km/h (2 Bft) W-SW 242 0 min 0,000 mm 0,0 UV-I 0 W/m 3,2 C 1,4 C 16,1 km/h (3 Bft) 100,00 %
17.04.2017 05:16 4,3 C 93 % 1017,6 hPa 0,0 l/m 9,4 km/h (2 Bft) W-SW 243 0 min 0,000 mm 0,0 UV-I 0 W/m 3,3 C 1,7 C 16,1 km/h (3 Bft) 97,44 %
17.04.2017 05:18 4,2 C 93 % 1017,6 hPa 0,0 l/m 11,7 km/h (2 Bft) SW 233 0 min 0,000 mm 0,0 UV-I 0 W/m 3,2 C 0,0 C 17,7 km/h (3 Bft) 100,00 %
17.04.2017 05:20 4,3 C 93 % 1017,5 hPa 0,0 l/m 13,5 km/h (3 Bft) W-SW 243 0 min 0,000 mm 0,0 UV-I 0 W/m 3,3 C -0,9 C 20,9 km/h (4 Bft) 97,37 %
17.04.2017 05:22 4,3 C 93 % 1017,5 hPa 0,0 l/m 14,3 km/h (3 Bft) SW 222 0 min 0,000 mm 0,0 UV-I 0 W/m 3,3 C -1,4 C 20,9 km/h (4 Bft) 96,43 %
17.04.2017 05:24 4,3 C 93 % 1017,5 hPa 0,0 l/m 11,0 km/h (2 Bft) SW 236 0 min 0,000 mm 0,0 UV-I 0 W/m 3,3 C 0,6 C 16,1 km/h (3 Bft) 100,00 %
17.04.2017 05:26 4,3 C 93 % 1017,5 hPa 0,0 l/m 12,0 km/h (2 Bft) W-SW 248 0 min 0,000 mm 0,0 UV-I 0 W/m 3,3 C -0,0 C 19,3 km/h (3 Bft) 97,37 %
17.04.2017 05:28 4,3 C 93 % 1017,6 hPa 0,0 l/m 12,3 km/h (3 Bft) W-SW 246 0 min 0,000 mm 0,0 UV-I 0 W/m 3,3 C -0,2 C 19,3 km/h (3 Bft) 98,00 %
17.04.2017 05:30 4,3 C 93 % 1017,6 hPa 0,0 l/m 14,6 km/h (3 Bft) SW 223 0 min 0,000 mm 0,0 UV-I 0 W/m 3,3 C -1,6 C 22,5 km/h (4 Bft) 97,56 %
17.04.2017 05:32 4,3 C 93 % 1017,5 hPa 0,0 l/m 12,9 km/h (3 Bft) SW 221 0 min 0,000 mm 0,0 UV-I 0 W/m 3,3 C -0,6 C 19,3 km/h (3 Bft) 98,11 %
17.04.2017 05:34 4,3 C 93 % 1017,6 hPa 0,0 l/m 13,3 km/h (3 Bft) SW 227 0 min 0,000 mm 0,0 UV-I 0 W/m 3,3 C -0,8 C 19,3 km/h (3 Bft) 100,00 %
17.04.2017 05:36 4,3 C 93 % 1017,6 hPa 0,0 l/m 10,0 km/h (2 Bft) W-SW 245 0 min 0,000 mm 0,0 UV-I 0 W/m 3,3 C 1,3 C 17,7 km/h (3 Bft) 98,11 %
17.04.2017 05:38 4,3 C 93 % 1017,6 hPa 0,0 l/m 9,9 km/h (2 Bft) S-SW 213 0 min 0,000 mm 0,0 UV-I 0 W/m 3,3 C 1,4 C 16,1 km/h (3 Bft) 97,87 %
17.04.2017 05:40 4,3 C 93 % 1017,6 hPa 0,0 l/m 9,4 km/h (2 Bft) W-SW 244 0 min 0,000 mm 0,0 UV-I 0 W/m 3,3 C 1,7 C 14,5 km/h (3 Bft) 95,74 %
17.04.2017 05:42 4,3 C 93 % 1017,6 hPa 0,0 l/m 9,4 km/h (2 Bft) W-SW 238 0 min 0,000 mm 0,0 UV-I 0 W/m 3,3 C 1,7 C 17,7 km/h (3 Bft) 100,00 %
17.04.2017 05:44 4,3 C 93 % 1017,6 hPa 0,0 l/m 9,9 km/h (2 Bft) S-SW 198 0 min 0,000 mm 0,0 UV-I 0 W/m 3,3 C 1,4 C 14,5 km/h (3 Bft) 97,73 %
17.04.2017 05:46 4,3 C 93 % 1017,6 hPa 0,0 l/m 9,4 km/h (2 Bft) W-SW 244 0 min 0,000 mm 0,0 UV-I 0 W/m 3,3 C 1,7 C 12,9 km/h (3 Bft) 96,23 %
17.04.2017 05:48 4,3 C 93 % 1017,6 hPa 0,0 l/m 10,5 km/h (2 Bft) W-SW 240 0 min 0,000 mm 0,0 UV-I 0 W/m 3,3 C 0,9 C 16,1 km/h (3 Bft) 96,43 %
17.04.2017 05:50 4,3 C 93 % 1017,6 hPa 0,0 l/m 11,4 km/h (2 Bft) SW 234 0 min 0,000 mm 0,0 UV-I 0 W/m 3,3 C 0,3 C 16,1 km/h (3 Bft) 100,00 %
17.04.2017 05:52 4,2 C 93 % 1017,6 hPa 0,0 l/m 9,9 km/h (2 Bft) W-SW 238 0 min 0,000 mm 0,0 UV-I 0 W/m 3,2 C 1,3 C 16,1 km/h (3 Bft) 94,00 %
17.04.2017 05:54 4,2 C 93 % 1017,6 hPa 0,0 l/m 12,5 km/h (3 Bft) SW 236 0 min 0,000 mm 0,0 UV-I 0 W/m 3,2 C -0,5 C 17,7 km/h (3 Bft) 94,87 %
17.04.2017 05:56 4,3 C 93 % 1017,6 hPa 0,0 l/m 10,9 km/h (2 Bft) W-SW 237 0 min 0,000 mm 0,0 UV-I 0 W/m 3,3 C 0,7 C 14,5 km/h (3 Bft) 96,23 %
17.04.2017 05:58 4,2 C 93 % 1017,6 hPa 0,0 l/m 8,3 km/h (2 Bft) W-SW 242 0 min 0,000 mm 0,0 UV-I 0 W/m 3,2 C 2,5 C 14,5 km/h (3 Bft) 95,45 %
17.04.2017 06:00 4,3 C 93 % 1017,6 hPa 0,0 l/m 8,6 km/h (2 Bft) W-SW 253 0 min 0,000 mm 0,0 UV-I 0 W/m 3,3 C 2,4 C 14,5 km/h (3 Bft) 98,11 %
17.04.2017 06:02 4,2 C 93 % 1017,6 hPa 0,0 l/m 10,2 km/h (2 Bft) SW 218 0 min 0,000 mm 0,0 UV-I 0 W/m 3,2 C 1,0 C 14,5 km/h (3 Bft) 97,73 %
17.04.2017 06:04 4,2 C 93 % 1017,6 hPa 0,0 l/m 9,3 km/h (2 Bft) SW 224 0 min 0,000 mm 0,0 UV-I 0 W/m 3,2 C 1,7 C 12,9 km/h (3 Bft) 98,00 %
17.04.2017 06:06 4,3 C 93 % 1017,6 hPa 0,0 l/m 10,5 km/h (2 Bft) W-SW 252 0 min 0,000 mm 0,0 UV-I 0 W/m 3,3 C 0,9 C 16,1 km/h (3 Bft) 93,62 %
17.04.2017 06:08 4,2 C 93 % 1017,6 hPa 0,0 l/m 12,3 km/h (3 Bft) SW 234 0 min 0,000 mm 0,0 UV-I 0 W/m 3,2 C -0,4 C 19,3 km/h (3 Bft) 95,74 %
17.04.2017 06:10 4,3 C 93 % 1017,6 hPa 0,0 l/m 11,5 km/h (2 Bft) SW 221 0 min 0,000 mm 0,0 UV-I 0 W/m 3,3 C 0,3 C 16,1 km/h (3 Bft) 95,12 %
17.04.2017 06:12 4,3 C 93 % 1017,6 hPa 0,0 l/m 8,9 km/h (2 Bft) SW 230 0 min 0,000 mm 0,0 UV-I 0 W/m 3,3 C 2,1 C 12,9 km/h (3 Bft) 97,73 %
17.04.2017 06:14 4,3 C 93 % 1017,6 hPa 0,0 l/m 9,2 km/h (2 Bft) W-SW 253 0 min 0,000 mm 0,0 UV-I 0 W/m 3,3 C 1,9 C 14,5 km/h (3 Bft) 96,23 %
17.04.2017 06:16 4,3 C 93 % 1017,5 hPa 0,0 l/m 10,3 km/h (2 Bft) SW 234 0 min 0,000 mm 0,0 UV-I 0 W/m 3,3 C 1,1 C 16,1 km/h (3 Bft) 97,37 %
17.04.2017 06:18 4,3 C 93 % 1017,6 hPa 0,0 l/m 6,6 km/h (2 Bft) SW 221 0 min 0,000 mm 0,0 UV-I 2 W/m 3,3 C 4,1 C 9,7 km/h (2 Bft) 95,45 %
17.04.2017 06:20 4,3 C 93 % 1017,5 hPa 0,0 l/m 9,6 km/h (2 Bft) SW 222 0 min 0,000 mm 0,0 UV-I 5 W/m 3,3 C 1,6 C 16,1 km/h (3 Bft) 94,34 %
17.04.2017 06:22 4,3 C 93 % 1017,5 hPa 0,0 l/m 10,9 km/h (2 Bft) W-SW 247 0 min 0,000 mm 0,0 UV-I 5 W/m 3,3 C 0,7 C 17,7 km/h (3 Bft) 96,23 %
17.04.2017 06:24 4,3 C 93 % 1017,5 hPa 0,0 l/m 9,6 km/h (2 Bft) W-SW 243 0 min 0,000 mm 0,0 UV-I 5 W/m 3,3 C 1,6 C 16,1 km/h (3 Bft) 95,45 %
17.04.2017 06:26 4,3 C 93 % 1017,5 hPa 0,0 l/m 9,2 km/h (2 Bft) SW 229 0 min 0,000 mm 0,0 UV-I 5 W/m 3,3 C 1,9 C 16,1 km/h (3 Bft) 90,91 %
17.04.2017 06:28 4,3 C 93 % 1017,5 hPa 0,0 l/m 7,8 km/h (2 Bft) W-SW 247 0 min 0,000 mm 0,0 UV-I 5 W/m 3,3 C 3,0 C 11,3 km/h (2 Bft) 98,11 %
17.04.2017 06:30 4,3 C 93 % 1017,5 hPa 0,0 l/m 9,6 km/h (2 Bft) W-SW 257 0 min 0,000 mm 0,0 UV-I 5 W/m 3,3 C 1,6 C 12,9 km/h (3 Bft) 95,74 %
17.04.2017 06:32 4,3 C 93 % 1017,5 hPa 0,0 l/m 9,6 km/h (2 Bft) W-SW 240 0 min 0,000 mm 0,0 UV-I 5 W/m 3,3 C 1,6 C 16,1 km/h (3 Bft) 97,44 %
17.04.2017 06:34 4,4 C 93 % 1017,5 hPa 0,0 l/m 9,5 km/h (2 Bft) W-SW 247 0 min 0,000 mm 0,0 UV-I 7 W/m 3,4 C 1,8 C 12,9 km/h (3 Bft) 100,00 %
17.04.2017 06:36 4,4 C 93 % 1017,5 hPa 0,0 l/m 9,1 km/h (2 Bft) SW 234 0 min 0,000 mm 0,0 UV-I 9 W/m 3,4 C 2,1 C 19,3 km/h (3 Bft) 94,55 %
17.04.2017 06:38 4,4 C 93 % 1017,5 hPa 0,0 l/m 9,6 km/h (2 Bft) SW 231 0 min 0,000 mm 0,0 UV-I 10 W/m 3,4 C 1,7 C 12,9 km/h (3 Bft) 97,44 %
17.04.2017 06:40 4,4 C 93 % 1017,5 hPa 0,0 l/m 9,9 km/h (2 Bft) W-SW 242 0 min 0,000 mm 0,0 UV-I 11 W/m 3,4 C 1,5 C 14,5 km/h (3 Bft) 90,91 %
17.04.2017 06:42 4,4 C 93 % 1017,5 hPa 0,0 l/m 9,8 km/h (2 Bft) W-SW 238 0 min 0,000 mm 0,0 UV-I 11 W/m 3,4 C 1,6 C 14,5 km/h (3 Bft) 98,11 %
17.04.2017 06:44 4,4 C 93 % 1017,6 hPa 0,0 l/m 12,2 km/h (2 Bft) SW 225 0 min 0,000 mm 0,0 UV-I 12 W/m 3,4 C -0,1 C 17,7 km/h (3 Bft) 94,74 %
17.04.2017 06:46 4,4 C 93 % 1017,5 hPa 0,0 l/m 8,6 km/h (2 Bft) S-SW 211 0 min 0,000 mm 0,0 UV-I 12 W/m 3,4 C 2,5 C 16,1 km/h (3 Bft) 98,15 %
17.04.2017 06:48 4,5 C 93 % 1017,5 hPa 0,0 l/m 9,1 km/h (2 Bft) S-SW 194 0 min 0,000 mm 0,0 UV-I 15 W/m 3,5 C 2,2 C 14,5 km/h (3 Bft) 95,12 %
17.04.2017 06:50 4,5 C 93 % 1017,5 hPa 0,0 l/m 10,1 km/h (2 Bft) S-SW 212 0 min 0,000 mm 0,0 UV-I 18 W/m 3,5 C 1,4 C 16,1 km/h (3 Bft) 96,23 %
17.04.2017 06:52 4,5 C 93 % 1017,5 hPa 0,0 l/m 8,3 km/h (2 Bft) S-SW 211 0 min 0,000 mm 0,0 UV-I 20 W/m 3,5 C 2,8 C 14,5 km/h (3 Bft) 100,00 %
17.04.2017 06:54 4,5 C 92 % 1017,4 hPa 0,0 l/m 6,9 km/h (2 Bft) SW 223 0 min 0,000 mm 0,0 UV-I 22 W/m 3,3 C 4,1 C 11,3 km/h (2 Bft) 91,30 %
17.04.2017 06:56 4,6 C 92 % 1017,5 hPa 0,0 l/m 9,2 km/h (2 Bft) SW 225 0 min 0,000 mm 0,0 UV-I 23 W/m 3,4 C 2,2 C 14,5 km/h (3 Bft) 100,00 %
17.04.2017 06:58 4,6 C 92 % 1017,5 hPa 0,0 l/m 8,9 km/h (2 Bft) S 180 0 min 0,000 mm 0,0 UV-I 25 W/m 3,4 C 2,5 C 14,5 km/h (3 Bft) 100,00 %
17.04.2017 07:00 4,6 C 92 % 1017,5 hPa 0,0 l/m 7,1 km/h (2 Bft) SW 219 0 min 0,000 mm 0,0 UV-I 23 W/m 3,4 C 4,0 C 14,5 km/h (3 Bft) 100,00 %
17.04.2017 07:02 4,6 C 92 % 1017,5 hPa 0,0 l/m 7,0 km/h (2 Bft) W-SW 239 0 min 0,000 mm 0,0 UV-I 23 W/m 3,4 C 4,1 C 9,7 km/h (2 Bft) 100,00 %
17.04.2017 07:04 4,6 C 92 % 1017,5 hPa 0,0 l/m 8,2 km/h (2 Bft) SW 217 0 min 0,000 mm 0,0 UV-I 23 W/m 3,4 C 3,0 C 12,9 km/h (3 Bft) 98,00 %
17.04.2017 07:06 4,6 C 92 % 1017,4 hPa 0,0 l/m 7,0 km/h (2 Bft) SW 216 0 min 0,000 mm 0,0 UV-I 21 W/m 3,4 C 4,1 C 11,3 km/h (2 Bft) 91,67 %
17.04.2017 07:08 4,6 C 92 % 1017,4 hPa 0,0 l/m 8,5 km/h (2 Bft) S-SW 207 0 min 0,000 mm 0,0 UV-I 22 W/m 3,4 C 2,8 C 14,5 km/h (3 Bft) 94,00 %
17.04.2017 07:10 4,6 C 92 % 1017,4 hPa 0,0 l/m 5,9 km/h (2 Bft) S-SW 211 0 min 0,000 mm 0,0 UV-I 25 W/m 3,4 C 4,6 C 9,7 km/h (2 Bft) 98,08 %
17.04.2017 07:12 4,6 C 92 % 1017,4 hPa 0,0 l/m 9,6 km/h (2 Bft) S-SW 196 0 min 0,000 mm 0,0 UV-I 26 W/m 3,4 C 1,9 C 12,9 km/h (3 Bft) 90,57 %
17.04.2017 07:14 4,6 C 92 % 1017,4 hPa 0,0 l/m 6,2 km/h (2 Bft) W-SW 238 0 min 0,000 mm 0,0 UV-I 28 W/m 3,4 C 4,6 C 9,7 km/h (2 Bft) 97,44 %
17.04.2017 07:16 4,7 C 92 % 1017,4 hPa 0,0 l/m 6,4 km/h (2 Bft) SW 229 0 min 0,000 mm 0,0 UV-I 32 W/m 3,5 C 4,7 C 11,3 km/h (2 Bft) 95,74 %
17.04.2017 07:18 4,7 C 92 % 1017,4 hPa 0,0 l/m 8,0 km/h (2 Bft) S-SW 213 0 min 0,000 mm 0,0 UV-I 38 W/m 3,5 C 3,3 C 12,9 km/h (3 Bft) 94,00 %
17.04.2017 07:20 4,7 C 92 % 1017,4 hPa 0,0 l/m 8,3 km/h (2 Bft) SW 234 0 min 0,000 mm 0,0 UV-I 39 W/m 3,5 C 3,0 C 11,3 km/h (2 Bft) 90,57 %
17.04.2017 07:22 4,7 C 92 % 1017,4 hPa 0,0 l/m 6,0 km/h (2 Bft) SW 233 0 min 0,000 mm 0,0 UV-I 41 W/m 3,5 C 4,7 C 11,3 km/h (2 Bft) 93,62 %
17.04.2017 07:24 4,7 C 92 % 1017,4 hPa 0,0 l/m 11,2 km/h (2 Bft) W-SW 249 0 min 0,000 mm 0,0 UV-I 41 W/m 3,5 C 0,9 C 16,1 km/h (3 Bft) 96,15 %
17.04.2017 07:26 4,7 C 92 % 1017,4 hPa 0,0 l/m 9,6 km/h (2 Bft) SW 220 0 min 0,000 mm 0,0 UV-I 34 W/m 3,5 C 2,0 C 16,1 km/h (3 Bft) 92,31 %
17.04.2017 07:28 4,8 C 92 % 1017,5 hPa 0,0 l/m 9,7 km/h (2 Bft) W-SW 246 0 min 0,000 mm 0,0 UV-I 30 W/m 3,6 C 2,1 C 14,5 km/h (3 Bft) 100,00 %
17.04.2017 07:30 4,8 C 92 % 1017,5 hPa 0,0 l/m 8,6 km/h (2 Bft) SW 229 0 min 0,000 mm 0,0 UV-I 30 W/m 3,6 C 2,9 C 12,9 km/h (3 Bft) 92,31 %
17.04.2017 07:32 4,8 C 92 % 1017,5 hPa 0,0 l/m 10,9 km/h (2 Bft) W-SW 240 0 min 0,000 mm 0,0 UV-I 31 W/m 3,6 C 1,2 C 19,3 km/h (3 Bft) 90,91 %
17.04.2017 07:34 4,8 C 92 % 1017,5 hPa 0,0 l/m 8,4 km/h (2 Bft) SW 223 0 min 0,000 mm 0,0 UV-I 30 W/m 3,6 C 3,1 C 14,5 km/h (3 Bft) 96,00 %
17.04.2017 07:36 4,8 C 92 % 1017,5 hPa 0,0 l/m 7,9 km/h (2 Bft) W-SW 250 0 min 0,000 mm 0,0 UV-I 27 W/m 3,6 C 3,5 C 12,9 km/h (3 Bft) 97,56 %
17.04.2017 07:38 4,8 C 91 % 1017,6 hPa 0,0 l/m 9,1 km/h (2 Bft) SW 225 0 min 0,000 mm 0,0 UV-I 26 W/m 3,5 C 2,5 C 16,1 km/h (3 Bft) 94,34 %
17.04.2017 07:40 4,8 C 91 % 1017,5 hPa 0,0 l/m 13,7 km/h (3 Bft) SW 224 0 min 0,000 mm 0,0 UV-I 23 W/m 3,5 C -0,5 C 19,3 km/h (3 Bft) 95,74 %
17.04.2017 07:42 4,8 C 91 % 1017,6 hPa 0,0 l/m 10,5 km/h (2 Bft) SW 226 0 min 0,000 mm 0,0 UV-I 22 W/m 3,5 C 1,5 C 14,5 km/h (3 Bft) 97,56 %
17.04.2017 07:44 4,8 C 91 % 1017,5 hPa 0,0 l/m 11,7 km/h (2 Bft) W-SW 238 0 min 0,000 mm 0,0 UV-I 21 W/m 3,5 C 0,7 C 17,7 km/h (3 Bft) 88,68 %
17.04.2017 07:46 4,8 C 91 % 1017,5 hPa 0,2 l/m 13,3 km/h (3 Bft) W-SW 239 0 min 0,000 mm 0,0 UV-I 19 W/m 3,5 C -0,2 C 17,7 km/h (3 Bft) 97,56 %
17.04.2017 07:48 4,8 C 91 % 1017,5 hPa 0,0 l/m 10,4 km/h (2 Bft) SW 215 0 min 0,000 mm 0,0 UV-I 23 W/m 3,5 C 1,6 C 17,7 km/h (3 Bft) 96,43 %
17.04.2017 07:50 4,8 C 91 % 1017,5 hPa 0,0 l/m 10,2 km/h (2 Bft) W-SW 257 0 min 0,000 mm 0,0 UV-I 31 W/m 3,5 C 1,7 C 14,5 km/h (3 Bft) 97,87 %
17.04.2017 07:52 4,8 C 91 % 1017,5 hPa 0,0 l/m 11,4 km/h (2 Bft) W-SW 238 0 min 0,000 mm 0,0 UV-I 35 W/m 3,5 C 0,9 C 17,7 km/h (3 Bft) 93,62 %
17.04.2017 07:54 4,8 C 91 % 1017,4 hPa 0,0 l/m 10,6 km/h (2 Bft) SW 226 0 min 0,000 mm 0,0 UV-I 50 W/m 3,5 C 1,4 C 14,5 km/h (3 Bft) 97,22 %
17.04.2017 07:56 4,8 C 91 % 1017,4 hPa 0,0 l/m 10,2 km/h (2 Bft) S-SW 205 0 min 0,000 mm 0,0 UV-I 75 W/m 3,5 C 1,7 C 16,1 km/h (3 Bft) 98,21 %
17.04.2017 07:58 4,9 C 91 % 1017,4 hPa 0,0 l/m 11,6 km/h (2 Bft) W-SW 246 0 min 0,000 mm 0,0 UV-I 92 W/m 3,6 C 0,9 C 16,1 km/h (3 Bft) 92,31 %
17.04.2017 08:00 4,9 C 91 % 1017,3 hPa 0,0 l/m 11,5 km/h (2 Bft) W-SW 243 0 min 0,026 mm 0,0 UV-I 82 W/m 3,6 C 1,0 C 19,3 km/h (3 Bft) 91,18 %
17.04.2017 08:02 4,9 C 91 % 1017,3 hPa 0,0 l/m 9,3 km/h (2 Bft) SW 228 0 min 0,000 mm 0,0 UV-I 70 W/m 3,6 C 2,5 C 17,7 km/h (3 Bft) 89,47 %
17.04.2017 08:04 5,0 C 91 % 1017,3 hPa 0,0 l/m 6,6 km/h (2 Bft) S-SW 207 0 min 0,000 mm 0,0 UV-I 63 W/m 3,7 C 4,8 C 9,7 km/h (2 Bft) 95,74 %
17.04.2017 08:06 5,0 C 91 % 1017,3 hPa 0,0 l/m 11,0 km/h (2 Bft) W-SW 257 0 min 0,000 mm 0,0 UV-I 56 W/m 3,7 C 1,4 C 16,1 km/h (3 Bft) 92,00 %
17.04.2017 08:08 5,0 C 90 % 1017,3 hPa 0,0 l/m 12,0 km/h (2 Bft) W-SW 238 0 min 0,000 mm 0,0 UV-I 45 W/m 3,5 C 0,8 C 19,3 km/h (3 Bft) 88,68 %
17.04.2017 08:10 5,0 C 90 % 1017,3 hPa 0,0 l/m 12,0 km/h (2 Bft) W 267 0 min 0,000 mm 0,0 UV-I 43 W/m 3,5 C 0,8 C 17,7 km/h (3 Bft) 92,68 %
17.04.2017 08:12 5,0 C 91 % 1017,4 hPa 0,0 l/m 11,1 km/h (2 Bft) W-SW 244 0 min 0,000 mm 0,0 UV-I 48 W/m 3,7 C 1,3 C 17,7 km/h (3 Bft) 90,57 %
17.04.2017 08:14 5,0 C 90 % 1017,4 hPa 0,0 l/m 9,4 km/h (2 Bft) SW 221 0 min 0,000 mm 0,0 UV-I 56 W/m 3,5 C 2,5 C 12,9 km/h (3 Bft) 97,56 %
17.04.2017 08:16 5,0 C 90 % 1017,4 hPa 0,0 l/m 9,4 km/h (2 Bft) S-SW 209 0 min 0,000 mm 0,0 UV-I 47 W/m 3,5 C 2,5 C 16,1 km/h (3 Bft) 93,62 %
17.04.2017 08:18 5,0 C 91 % 1017,4 hPa 0,0 l/m 12,2 km/h (2 Bft) SW 232 0 min 0,000 mm 0,0 UV-I 43 W/m 3,7 C 0,6 C 19,3 km/h (3 Bft) 96,23 %
17.04.2017 08:20 4,9 C 90 % 1017,5 hPa 0,0 l/m 16,6 km/h (3 Bft) S-SW 212 0 min 0,000 mm 0,0 UV-I 43 W/m 3,4 C -1,8 C 24,1 km/h (4 Bft) 93,62 %
17.04.2017 08:22 4,9 C 90 % 1017,4 hPa 0,0 l/m 14,5 km/h (3 Bft) SW 225 0 min 0,000 mm 0,0 UV-I 53 W/m 3,4 C -0,8 C 22,5 km/h (4 Bft) 94,74 %
17.04.2017 08:24 4,9 C 90 % 1017,4 hPa 0,2 l/m 12,9 km/h (3 Bft) W-SW 243 0 min 0,000 mm 0,0 UV-I 64 W/m 3,4 C 0,1 C 17,7 km/h (3 Bft) 95,74 %
17.04.2017 08:26 4,8 C 90 % 1017,4 hPa 0,0 l/m 12,1 km/h (2 Bft) W-SW 240 0 min 0,000 mm 0,0 UV-I 56 W/m 3,3 C 0,5 C 19,3 km/h (3 Bft) 90,91 %
17.04.2017 08:28 4,8 C 90 % 1017,4 hPa 0,0 l/m 8,7 km/h (2 Bft) W-SW 248 0 min 0,000 mm 0,0 UV-I 42 W/m 3,3 C 2,8 C 12,9 km/h (3 Bft) 92,45 %
17.04.2017 08:30 4,8 C 91 % 1017,4 hPa 0,0 l/m 13,1 km/h (3 Bft) W 259 0 min 0,000 mm 0,0 UV-I 40 W/m 3,5 C -0,1 C 19,3 km/h (3 Bft) 92,31 %
17.04.2017 08:32 4,8 C 91 % 1017,4 hPa 0,0 l/m 11,0 km/h (2 Bft) SW 217 0 min 0,000 mm 0,0 UV-I 44 W/m 3,5 C 1,2 C 20,9 km/h (4 Bft) 98,11 %
17.04.2017 08:34 4,8 C 91 % 1017,4 hPa 0,0 l/m 13,4 km/h (3 Bft) W-SW 238 0 min 0,000 mm 0,0 UV-I 42 W/m 3,5 C -0,3 C 19,3 km/h (3 Bft) 95,74 %
17.04.2017 08:36 4,8 C 90 % 1017,4 hPa 0,0 l/m 11,5 km/h (2 Bft) W-SW 245 0 min 0,000 mm 0,0 UV-I 40 W/m 3,3 C 0,8 C 17,7 km/h (3 Bft) 96,00 %
17.04.2017 08:38 4,8 C 90 % 1017,4 hPa 0,0 l/m 9,3 km/h (2 Bft) W-SW 252 0 min 0,000 mm 0,0 UV-I 44 W/m 3,3 C 2,4 C 17,7 km/h (3 Bft) 87,80 %
17.04.2017 08:40 4,8 C 91 % 1017,4 hPa 0,0 l/m 10,2 km/h (2 Bft) W 261 0 min 0,000 mm 0,0 UV-I 54 W/m 3,5 C 1,7 C 16,1 km/h (3 Bft) 98,21 %
17.04.2017 08:42 4,8 C 91 % 1017,4 hPa 0,0 l/m 10,3 km/h (2 Bft) W-SW 254 0 min 0,000 mm 0,0 UV-I 62 W/m 3,5 C 1,6 C 14,5 km/h (3 Bft) 100,00 %
17.04.2017 08:44 4,8 C 91 % 1017,4 hPa 0,0 l/m 12,5 km/h (3 Bft) W 268 0 min 0,000 mm 0,0 UV-I 63 W/m 3,5 C 0,2 C 19,3 km/h (3 Bft) 94,00 %
17.04.2017 08:46 4,8 C 91 % 1017,4 hPa 0,0 l/m 5,6 km/h (1 Bft) W 267 0 min 0,000 mm 0,0 UV-I 70 W/m 3,5 C 4,8 C 9,7 km/h (2 Bft) 95,74 %
17.04.2017 08:48 4,9 C 91 % 1017,4 hPa 0,0 l/m 8,7 km/h (2 Bft) W-SW 252 0 min 0,000 mm 0,0 UV-I 66 W/m 3,6 C 2,9 C 16,1 km/h (3 Bft) 100,00 %
17.04.2017 08:50 4,9 C 91 % 1017,4 hPa 0,0 l/m 11,8 km/h (2 Bft) W-SW 253 0 min 0,000 mm 0,0 UV-I 70 W/m 3,6 C 0,8 C 16,1 km/h (3 Bft) 97,56 %
17.04.2017 08:52 4,9 C 91 % 1017,4 hPa 0,0 l/m 14,3 km/h (3 Bft) S-SW 193 0 min 0,000 mm 0,0 UV-I 71 W/m 3,6 C -0,7 C 20,9 km/h (4 Bft) 97,37 %
17.04.2017 08:54 4,9 C 91 % 1017,4 hPa 0,0 l/m 12,8 km/h (3 Bft) S 190 0 min 0,000 mm 0,0 UV-I 72 W/m 3,6 C 0,2 C 20,9 km/h (4 Bft) 94,34 %
17.04.2017 08:56 4,9 C 90 % 1017,4 hPa 0,0 l/m 17,7 km/h (3 Bft) S-SW 211 0 min 0,000 mm 0,0 UV-I 79 W/m 3,4 C -2,3 C 25,7 km/h (4 Bft) 98,21 %
17.04.2017 08:58 4,9 C 90 % 1017,4 hPa 0,0 l/m 11,3 km/h (2 Bft) SW 218 0 min 0,000 mm 0,0 UV-I 74 W/m 3,4 C 1,1 C 16,1 km/h (3 Bft) 97,87 %
17.04.2017 09:00 4,9 C 90 % 1017,4 hPa 0,0 l/m 13,3 km/h (3 Bft) W-SW 251 0 min 0,025 mm 0,0 UV-I 81 W/m 3,4 C -0,1 C 20,9 km/h (4 Bft) 95,12 %
17.04.2017 09:02 4,9 C 90 % 1017,3 hPa 0,0 l/m 13,4 km/h (3 Bft) W-SW 242 0 min 0,000 mm 0,0 UV-I 74 W/m 3,4 C -0,2 C 22,5 km/h (4 Bft) 96,23 %
17.04.2017 09:04 4,9 C 90 % 1017,3 hPa 0,0 l/m 15,8 km/h (3 Bft) W-SW 245 0 min 0,000 mm 0,0 UV-I 61 W/m 3,4 C -1,4 C 27,4 km/h (4 Bft) 100,00 %
17.04.2017 09:06 4,8 C 90 % 1017,3 hPa 0,0 l/m 14,2 km/h (3 Bft) SW 220 0 min 0,000 mm 0,0 UV-I 58 W/m 3,3 C -0,7 C 27,4 km/h (4 Bft) 98,11 %
17.04.2017 09:08 4,8 C 90 % 1017,3 hPa 0,0 l/m 16,5 km/h (3 Bft) W-SW 250 0 min 0,000 mm 0,0 UV-I 51 W/m 3,3 C -1,9 C 27,4 km/h (4 Bft) 90,24 %
17.04.2017 09:10 4,8 C 90 % 1017,3 hPa 0,0 l/m 15,6 km/h (3 Bft) W-SW 254 0 min 0,000 mm 0,0 UV-I 62 W/m 3,3 C -1,5 C 24,1 km/h (4 Bft) 98,11 %
17.04.2017 09:12 4,8 C 90 % 1017,3 hPa 0,0 l/m 12,9 km/h (3 Bft) W-SW 242 0 min 0,000 mm 0,0 UV-I 85 W/m 3,3 C -0,0 C 17,7 km/h (3 Bft) 98,00 %
17.04.2017 09:14 4,8 C 90 % 1017,3 hPa 0,0 l/m 14,8 km/h (3 Bft) SW 222 0 min 0,000 mm 0,0 UV-I 119 W/m 3,3 C -1,1 C 22,5 km/h (4 Bft) 92,31 %
17.04.2017 09:16 4,8 C 91 % 1017,2 hPa 0,0 l/m 14,3 km/h (3 Bft) SW 232 0 min 0,000 mm 0,0 UV-I 143 W/m 3,5 C -0,8 C 22,5 km/h (4 Bft) 100,00 %
17.04.2017 09:18 4,9 C 91 % 1017,3 hPa 0,0 l/m 13,1 km/h (3 Bft) SW 215 0 min 0,000 mm 0,0 UV-I 143 W/m 3,6 C -0,0 C 20,9 km/h (4 Bft) 92,11 %
17.04.2017 09:20 4,9 C 91 % 1017,3 hPa 0,0 l/m 14,5 km/h (3 Bft) SW 232 0 min 0,000 mm 0,0 UV-I 123 W/m 3,6 C -0,8 C 22,5 km/h (4 Bft) 95,12 %
17.04.2017 09:22 4,9 C 90 % 1017,3 hPa 0,0 l/m 18,3 km/h (3 Bft) W-SW 250 0 min 0,000 mm 0,0 UV-I 122 W/m 3,4 C -2,6 C 25,7 km/h (4 Bft) 100,00 %
17.04.2017 09:24 4,9 C 90 % 1017,3 hPa 0,0 l/m 16,0 km/h (3 Bft) SW 229 0 min 0,000 mm 0,3 UV-I 153 W/m 3,4 C -1,5 C 22,5 km/h (4 Bft) 94,34 %
17.04.2017 09:26 4,8 C 90 % 1017,2 hPa 0,0 l/m 14,6 km/h (3 Bft) S-SW 201 0 min 0,000 mm 0,7 UV-I 219 W/m 3,3 C -1,0 C 24,1 km/h (4 Bft) 100,00 %
17.04.2017 09:28 4,9 C 91 % 1017,2 hPa 0,0 l/m 12,2 km/h (2 Bft) SW 221 0 min 0,000 mm 0,8 UV-I 248 W/m 3,6 C 0,5 C 19,3 km/h (3 Bft) 97,14 %
17.04.2017 09:30 4,9 C 91 % 1017,2 hPa 0,0 l/m 15,6 km/h (3 Bft) W-SW 241 0 min 0,000 mm 0,8 UV-I 260 W/m 3,6 C -1,3 C 22,5 km/h (4 Bft) 98,31 %
17.04.2017 09:32 5,0 C 91 % 1017,2 hPa 0,0 l/m 13,3 km/h (3 Bft) W-SW 252 0 min 0,000 mm 0,8 UV-I 242 W/m 3,7 C -0,0 C 22,5 km/h (4 Bft) 100,00 %
17.04.2017 09:34 5,1 C 91 % 1017,1 hPa 0,0 l/m 11,5 km/h (2 Bft) S-SW 213 0 min 0,000 mm 0,8 UV-I 195 W/m 3,8 C 1,2 C 19,3 km/h (3 Bft) 94,00 %
17.04.2017 09:36 5,0 C 90 % 1017,1 hPa 0,0 l/m 14,0 km/h (3 Bft) W-SW 246 0 min 0,000 mm 0,8 UV-I 159 W/m 3,5 C -0,4 C 22,5 km/h (4 Bft) 100,00 %
17.04.2017 09:38 5,0 C 90 % 1017,1 hPa 0,0 l/m 12,7 km/h (3 Bft) SW 224 0 min 0,000 mm 0,8 UV-I 163 W/m 3,5 C 0,3 C 19,3 km/h (3 Bft) 97,37 %
17.04.2017 09:40 5,0 C 90 % 1017,1 hPa 0,0 l/m 13,2 km/h (3 Bft) W-SW 240 0 min 0,000 mm 1,0 UV-I 223 W/m 3,5 C 0,0 C 17,7 km/h (3 Bft) 98,11 %
17.04.2017 09:42 5,1 C 90 % 1017,0 hPa 0,0 l/m 9,7 km/h (2 Bft) S-SW 209 2 min 0,000 mm 1,1 UV-I 316 W/m 3,6 C 2,4 C 14,5 km/h (3 Bft) 95,12 %
17.04.2017 09:44 5,2 C 90 % 1017,0 hPa 0,0 l/m 19,0 km/h (3 Bft) W-SW 248 2 min 0,000 mm 1,3 UV-I 446 W/m 3,7 C -2,5 C 29,0 km/h (5 Bft) 95,45 %
17.04.2017 09:46 5,4 C 89 % 1017,1 hPa 0,0 l/m 15,6 km/h (3 Bft) S-SW 204 2 min 0,000 mm 1,4 UV-I 464 W/m 3,7 C -0,7 C 24,1 km/h (4 Bft) 96,00 %
17.04.2017 09:48 5,5 C 89 % 1017,0 hPa 0,0 l/m 15,8 km/h (3 Bft) SW 230 0 min 0,000 mm 1,3 UV-I 301 W/m 3,8 C -0,7 C 27,4 km/h (4 Bft) 98,00 %
17.04.2017 09:50 5,6 C 89 % 1017,0 hPa 0,0 l/m 18,7 km/h (3 Bft) SW 214 2 min 0,000 mm 1,5 UV-I 391 W/m 3,9 C -1,9 C 27,4 km/h (4 Bft) 100,00 %
17.04.2017 09:52 5,7 C 89 % 1017,0 hPa 0,0 l/m 14,3 km/h (3 Bft) W-SW 242 2 min 0,000 mm 1,6 UV-I 598 W/m 4,0 C 0,3 C 20,9 km/h (4 Bft) 100,00 %
17.04.2017 09:54 5,9 C 89 % 1016,9 hPa 0,0 l/m 15,5 km/h (3 Bft) SW 229 2 min 0,000 mm 1,5 UV-I 406 W/m 4,2 C -0,1 C 25,7 km/h (4 Bft) 94,87 %
17.04.2017 09:56 6,1 C 88 % 1016,9 hPa 0,0 l/m 10,9 km/h (2 Bft) W 262 2 min 0,000 mm 1,7 UV-I 332 W/m 4,3 C 2,7 C 16,1 km/h (3 Bft) 97,56 %
17.04.2017 10:00 6,2 C 87 % 1016,8 hPa 0,0 l/m 14,5 km/h (3 Bft) SW 225 4 min 0,102 mm 1,6 UV-I 406 W/m 4,2 C 0,8 C 25,7 km/h (4 Bft) 94,74 %
17.04.2017 10:04 6,3 C 86 % 1016,9 hPa 0,0 l/m 23,1 km/h (4 Bft) W-SW 238 4 min 0,000 mm 1,6 UV-I 615 W/m 4,1 C -2,6 C 30,6 km/h (5 Bft) 83,33 %
17.04.2017 10:06 6,4 C 87 % 1016,9 hPa 0,0 l/m 21,2 km/h (4 Bft) SW 215 2 min 0,000 mm 1,7 UV-I 634 W/m 4,4 C -1,8 C 29,0 km/h (5 Bft) 95,74 %
17.04.2017 10:08 6,6 C 87 % 1016,8 hPa 0,0 l/m 14,7 km/h (3 Bft) SW 229 2 min 0,000 mm 1,8 UV-I 662 W/m 4,6 C 1,2 C 19,3 km/h (3 Bft) 94,00 %
17.04.2017 10:10 6,7 C 87 % 1016,8 hPa 0,0 l/m 15,4 km/h (3 Bft) SW 236 2 min 0,000 mm 1,6 UV-I 563 W/m 4,7 C 0,9 C 22,5 km/h (4 Bft) 90,57 %
17.04.2017 10:12 6,7 C 85 % 1016,8 hPa 0,0 l/m 16,8 km/h (3 Bft) W-SW 251 2 min 0,000 mm 1,5 UV-I 499 W/m 4,4 C 0,3 C 32,2 km/h (5 Bft) 95,56 %
17.04.2017 10:14 6,6 C 85 % 1016,8 hPa 0,0 l/m 15,9 km/h (3 Bft) SW 221 2 min 0,000 mm 1,5 UV-I 511 W/m 4,3 C 0,6 C 29,0 km/h (5 Bft) 96,00 %
17.04.2017 10:16 6,6 C 85 % 1016,8 hPa 0,0 l/m 18,3 km/h (3 Bft) SW 235 2 min 0,000 mm 1,6 UV-I 513 W/m 4,3 C -0,4 C 30,6 km/h (5 Bft) 92,59 %
17.04.2017 10:20 6,5 C 86 % 1016,8 hPa 0,0 l/m 16,1 km/h (3 Bft) W-SW 247 4 min 0,000 mm 1,4 UV-I 359 W/m 4,3 C 0,4 C 30,6 km/h (5 Bft) 96,49 %
17.04.2017 10:25 6,2 C 85 % 1016,8 hPa 0,0 l/m 16,6 km/h (3 Bft) W 262 0 min 0,000 mm 1,2 UV-I 288 W/m 3,9 C -0,2 C 27,4 km/h (4 Bft) 94,00 %
17.04.2017 10:26 6,2 C 85 % 1016,8 hPa 0,0 l/m 20,9 km/h (4 Bft) W-SW 243 0 min 0,000 mm 1,0 UV-I 253 W/m 3,9 C -2,0 C 27,4 km/h (4 Bft) 92,59 %
17.04.2017 10:28 6,1 C 85 % 1016,8 hPa 0,0 l/m 16,0 km/h (3 Bft) W-SW 242 0 min 0,000 mm 1,0 UV-I 264 W/m 3,8 C -0,1 C 20,9 km/h (4 Bft) 92,68 %
17.04.2017 10:30 6,1 C 86 % 1016,8 hPa 0,0 l/m 17,3 km/h (3 Bft) W-SW 242 0 min 0,000 mm 1,0 UV-I 253 W/m 3,9 C -0,7 C 25,7 km/h (4 Bft) 94,34 %
17.04.2017 10:32 6,1 C 85 % 1016,8 hPa 0,0 l/m 15,6 km/h (3 Bft) W-SW 240 0 min 0,000 mm 1,0 UV-I 254 W/m 3,8 C 0,1 C 24,1 km/h (4 Bft) 97,56 %
17.04.2017 10:34 6,2 C 86 % 1016,8 hPa 0,0 l/m 15,8 km/h (3 Bft) SW 232 0 min 0,000 mm 1,0 UV-I 249 W/m 4,0 C 0,1 C 25,7 km/h (4 Bft) 100,00 %
17.04.2017 10:36 6,2 C 85 % 1016,7 hPa 0,0 l/m 16,9 km/h (3 Bft) SW 232 0 min 0,000 mm 0,9 UV-I 237 W/m 3,9 C -0,4 C 24,1 km/h (4 Bft) 93,62 %
17.04.2017 10:38 6,2 C 85 % 1016,7 hPa 0,0 l/m 21,8 km/h (4 Bft) W-SW 240 0 min 0,000 mm 0,9 UV-I 235 W/m 3,9 C -2,3 C 33,8 km/h (5 Bft) 97,56 %
17.04.2017 10:40 6,2 C 85 % 1016,7 hPa 0,0 l/m 17,1 km/h (3 Bft) W-SW 237 0 min 0,000 mm 1,0 UV-I 250 W/m 3,9 C -0,4 C 25,7 km/h (4 Bft) 100,00 %
17.04.2017 10:42 6,2 C 86 % 1016,8 hPa 0,0 l/m 9,8 km/h (2 Bft) W-SW 252 0 min 0,000 mm 1,1 UV-I 272 W/m 4,0 C 3,5 C 16,1 km/h (3 Bft) 97,56 %
17.04.2017 10:44 6,3 C 86 % 1016,7 hPa 0,0 l/m 14,9 km/h (3 Bft) SW 217 0 min 0,000 mm 1,1 UV-I 290 W/m 4,1 C 0,7 C 20,9 km/h (4 Bft) 89,83 %
17.04.2017 10:46 6,3 C 86 % 1016,7 hPa 0,0 l/m 16,5 km/h (3 Bft) S-SW 200 0 min 0,000 mm 1,2 UV-I 294 W/m 4,1 C -0,1 C 25,7 km/h (4 Bft) 100,00 %
17.04.2017 10:48 6,3 C 85 % 1016,7 hPa 0,0 l/m 17,7 km/h (3 Bft) W-SW 242 0 min 0,000 mm 1,3 UV-I 303 W/m 4,0 C -0,6 C 25,7 km/h (4 Bft) 97,44 %
17.04.2017 10:50 6,4 C 85 % 1016,6 hPa 0,0 l/m 15,4 km/h (3 Bft) W-SW 244 0 min 0,000 mm 1,3 UV-I 319 W/m 4,1 C 0,6 C 27,4 km/h (4 Bft) 96,55 %
17.04.2017 10:52 6,4 C 85 % 1016,6 hPa 0,0 l/m 16,2 km/h (3 Bft) S-SW 213 0 min 0,000 mm 1,4 UV-I 322 W/m 4,1 C 0,2 C 24,1 km/h (4 Bft) 97,44 %
17.04.2017 10:54 6,5 C 85 % 1016,6 hPa 0,0 l/m 18,1 km/h (3 Bft) W-SW 242 0 min 0,000 mm 1,4 UV-I 307 W/m 4,2 C -0,5 C 24,1 km/h (4 Bft) 94,74 %
17.04.2017 10:56 6,5 C 84 % 1016,6 hPa 0,0 l/m 16,7 km/h (3 Bft) W-SW 238 0 min 0,000 mm 1,4 UV-I 304 W/m 4,0 C 0,1 C 27,4 km/h (4 Bft) 98,31 %
17.04.2017 10:58 6,6 C 84 % 1016,6 hPa 0,0 l/m 15,2 km/h (3 Bft) W-SW 254 0 min 0,000 mm 1,4 UV-I 309 W/m 4,1 C 0,9 C 24,1 km/h (4 Bft) 100,00 %
17.04.2017 11:00 6,6 C 85 % 1016,5 hPa 0,0 l/m 15,3 km/h (3 Bft) SW 227 0 min 0,178 mm 1,4 UV-I 285 W/m 4,3 C 0,9 C 20,9 km/h (4 Bft) 94,34 %
17.04.2017 11:02 6,7 C 85 % 1016,5 hPa 0,0 l/m 11,5 km/h (2 Bft) W-SW 242 0 min 0,000 mm 1,5 UV-I 270 W/m 4,4 C 3,0 C 19,3 km/h (3 Bft) 92,68 %
17.04.2017 11:04 6,8 C 85 % 1016,4 hPa 0,0 l/m 12,3 km/h (3 Bft) W-SW 250 0 min 0,000 mm 1,5 UV-I 230 W/m 4,5 C 2,7 C 17,7 km/h (3 Bft) 96,43 %
17.04.2017 11:06 6,7 C 84 % 1016,4 hPa 0,0 l/m 14,5 km/h (3 Bft) SW 222 0 min 0,000 mm 1,6 UV-I 210 W/m 4,2 C 1,4 C 22,5 km/h (4 Bft) 94,74 %
17.04.2017 11:08 6,7 C 84 % 1016,4 hPa 0,0 l/m 14,5 km/h (3 Bft) S-SW 203 0 min 0,000 mm 2,4 UV-I 287 W/m 4,2 C 1,4 C 25,7 km/h (4 Bft) 98,21 %
17.04.2017 11:10 6,9 C 83 % 1016,3 hPa 0,0 l/m 16,3 km/h (3 Bft) W-SW 256 2 min 0,000 mm 2,4 UV-I 420 W/m 4,2 C 0,8 C 30,6 km/h (5 Bft) 92,68 %
17.04.2017 11:12 7,1 C 81 % 1016,2 hPa 0,0 l/m 19,9 km/h (4 Bft) W 277 2 min 0,000 mm 2,8 UV-I 824 W/m 4,1 C -0,4 C 29,0 km/h (5 Bft) 90,91 %
17.04.2017 11:14 7,4 C 81 % 1016,3 hPa 0,0 l/m 19,9 km/h (4 Bft) W-SW 258 2 min 0,000 mm 3,1 UV-I 902 W/m 4,4 C -0,0 C 29,0 km/h (5 Bft) 98,11 %
17.04.2017 11:16 7,7 C 82 % 1016,2 hPa 0,0 l/m 17,3 km/h (3 Bft) SW 221 2 min 0,000 mm 3,2 UV-I 949 W/m 4,8 C 1,3 C 24,1 km/h (4 Bft) 97,37 %
17.04.2017 11:18 7,9 C 80 % 1016,2 hPa 0,0 l/m 18,2 km/h (3 Bft) SW 217 2 min 0,000 mm 3,3 UV-I 764 W/m 4,7 C 1,2 C 30,6 km/h (5 Bft) 94,64 %
17.04.2017 11:20 8,1 C 79 % 1016,2 hPa 0,0 l/m 21,5 km/h (4 Bft) W 263 2 min 0,000 mm 3,1 UV-I 767 W/m 4,7 C 0,3 C 32,2 km/h (5 Bft) 95,45 %
17.04.2017 11:22 8,0 C 78 % 1016,1 hPa 0,0 l/m 19,9 km/h (4 Bft) S 176 2 min 0,000 mm 2,3 UV-I 681 W/m 4,4 C 0,7 C 27,4 km/h (4 Bft) 93,62 %
17.04.2017 11:24 7,8 C 79 % 1016,1 hPa 0,0 l/m 18,9 km/h (3 Bft) W-SW 253 2 min 0,000 mm 2,3 UV-I 558 W/m 4,4 C 0,8 C 29,0 km/h (5 Bft) 97,44 %
17.04.2017 11:26 7,9 C 80 % 1016,1 hPa 0,0 l/m 19,7 km/h (3 Bft) SW 221 2 min 0,000 mm 2,2 UV-I 536 W/m 4,7 C 0,7 C 27,4 km/h (4 Bft) 96,00 %
17.04.2017 11:28 7,7 C 78 % 1016,0 hPa 0,0 l/m 19,8 km/h (3 Bft) S 188 2 min 0,000 mm 2,2 UV-I 501 W/m 4,1 C 0,4 C 33,8 km/h (5 Bft) 91,49 %
17.04.2017 11:30 7,6 C 79 % 1016,0 hPa 0,0 l/m 19,8 km/h (3 Bft) SW 219 2 min 0,000 mm 2,1 UV-I 473 W/m 4,2 C 0,3 C 29,0 km/h (5 Bft) 95,45 %
17.04.2017 11:32 7,6 C 79 % 1016,1 hPa 0,0 l/m 21,4 km/h (4 Bft) W-SW 257 2 min 0,000 mm 2,1 UV-I 428 W/m 4,2 C -0,3 C 32,2 km/h (5 Bft) 97,87 %
17.04.2017 11:34 7,5 C 79 % 1016,0 hPa 0,0 l/m 19,4 km/h (3 Bft) SW 215 2 min 0,000 mm 2,1 UV-I 427 W/m 4,1 C 0,3 C 25,7 km/h (4 Bft) 95,00 %
17.04.2017 11:36 7,4 C 80 % 1015,9 hPa 0,0 l/m 17,1 km/h (3 Bft) SW 216 2 min 0,000 mm 2,4 UV-I 516 W/m 4,2 C 1,1 C 24,1 km/h (4 Bft) 97,56 %
17.04.2017 11:38 7,6 C 80 % 1015,9 hPa 0,0 l/m 17,5 km/h (3 Bft) SW 232 2 min 0,000 mm 2,7 UV-I 598 W/m 4,4 C 1,1 C 25,7 km/h (4 Bft) 94,00 %
17.04.2017 11:40 7,8 C 79 % 1015,9 hPa 0,0 l/m 17,3 km/h (3 Bft) SW 230 2 min 0,000 mm 2,8 UV-I 747 W/m 4,4 C 1,5 C 24,1 km/h (4 Bft) 95,12 %
17.04.2017 11:42 8,2 C 79 % 1015,8 hPa 0,0 l/m 19,8 km/h (3 Bft) SW 235 2 min 0,000 mm 2,5 UV-I 682 W/m 4,8 C 1,0 C 32,2 km/h (5 Bft) 94,44 %
17.04.2017 11:44 8,1 C 77 % 1015,9 hPa 0,0 l/m 19,9 km/h (4 Bft) S-SW 212 2 min 0,000 mm 1,9 UV-I 517 W/m 4,3 C 0,9 C 32,2 km/h (5 Bft) 92,11 %
17.04.2017 11:46 7,9 C 77 % 1015,8 hPa 0,0 l/m 12,4 km/h (3 Bft) W-SW 247 0 min 0,000 mm 1,7 UV-I 372 W/m 4,1 C 3,9 C 20,9 km/h (4 Bft) 95,45 %
17.04.2017 11:48 7,8 C 78 % 1015,8 hPa 0,0 l/m 16,4 km/h (3 Bft) W-SW 251 0 min 0,000 mm 1,3 UV-I 289 W/m 4,2 C 1,8 C 24,1 km/h (4 Bft) 96,23 %
17.04.2017 11:50 7,7 C 77 % 1015,9 hPa 0,0 l/m 18,1 km/h (3 Bft) SW 227 0 min 0,000 mm 1,2 UV-I 253 W/m 3,9 C 1,0 C 27,4 km/h (4 Bft) 92,00 %
17.04.2017 11:52 7,5 C 78 % 1015,8 hPa 0,0 l/m 17,3 km/h (3 Bft) SW 219 0 min 0,000 mm 1,2 UV-I 258 W/m 3,9 C 1,1 C 27,4 km/h (4 Bft) 96,00 %
17.04.2017 11:54 7,4 C 79 % 1015,8 hPa 0,0 l/m 18,6 km/h (3 Bft) W-SW 246 0 min 0,000 mm 1,2 UV-I 258 W/m 4,0 C 0,5 C 25,7 km/h (4 Bft) 95,12 %
17.04.2017 11:56 7,3 C 79 % 1015,8 hPa 0,0 l/m 19,9 km/h (4 Bft) SW 217 0 min 0,000 mm 1,2 UV-I 266 W/m 3,9 C -0,2 C 25,7 km/h (4 Bft) 94,74 %
17.04.2017 11:58 7,3 C 79 % 1015,8 hPa 0,0 l/m 15,6 km/h (3 Bft) SW 233 0 min 0,000 mm 1,3 UV-I 296 W/m 3,9 C 1,6 C 24,1 km/h (4 Bft) 92,86 %
17.04.2017 12:00 7,3 C 79 % 1015,7 hPa 0,0 l/m 17,6 km/h (3 Bft) SW 234 0 min 0,254 mm 1,3 UV-I 298 W/m 3,9 C 0,7 C 24,1 km/h (4 Bft) 94,00 %
17.04.2017 12:02 7,3 C 78 % 1015,7 hPa 0,0 l/m 13,6 km/h (3 Bft) W-NW 288 0 min 0,000 mm 1,3 UV-I 286 W/m 3,7 C 2,5 C 19,3 km/h (3 Bft) 95,45 %
17.04.2017 12:04 7,4 C 78 % 1015,7 hPa 0,0 l/m 14,5 km/h (3 Bft) SW 224 0 min 0,000 mm 1,4 UV-I 281 W/m 3,8 C 2,2 C 20,9 km/h (4 Bft) 94,00 %
17.04.2017 12:06 7,4 C 78 % 1015,7 hPa 0,0 l/m 17,3 km/h (3 Bft) W-SW 246 0 min 0,000 mm 1,5 UV-I 303 W/m 3,8 C 1,0 C 25,7 km/h (4 Bft) 94,87 %
17.04.2017 12:08 7,4 C 78 % 1015,6 hPa 0,0 l/m 14,4 km/h (3 Bft) SW 218 0 min 0,000 mm 1,7 UV-I 338 W/m 3,8 C 2,3 C 22,5 km/h (4 Bft) 94,55 %
17.04.2017 12:10 7,4 C 78 % 1015,5 hPa 0,0 l/m 15,7 km/h (3 Bft) SW 232 0 min 0,000 mm 1,8 UV-I 365 W/m 3,8 C 1,7 C 27,4 km/h (4 Bft) 95,56 %
17.04.2017 12:12 7,4 C 78 % 1015,5 hPa 0,0 l/m 16,1 km/h (3 Bft) W 266 0 min 0,000 mm 1,7 UV-I 362 W/m 3,8 C 1,5 C 25,7 km/h (4 Bft) 94,74 %
17.04.2017 12:14 7,6 C 79 % 1015,5 hPa 0,0 l/m 16,2 km/h (3 Bft) W 261 0 min 0,000 mm 1,8 UV-I 377 W/m 4,2 C 1,7 C 25,7 km/h (4 Bft) 96,23 %
17.04.2017 12:16 7,7 C 78 % 1015,5 hPa 0,0 l/m 17,0 km/h (3 Bft) W-SW 245 0 min 0,000 mm 1,9 UV-I 402 W/m 4,1 C 1,5 C 25,7 km/h (4 Bft) 97,73 %
17.04.2017 12:18 7,7 C 77 % 1015,5 hPa 0,0 l/m 16,6 km/h (3 Bft) S-SW 211 0 min 0,000 mm 2,0 UV-I 416 W/m 3,9 C 1,6 C 27,4 km/h (4 Bft) 96,23 %
17.04.2017 12:20 7,7 C 77 % 1015,4 hPa 0,0 l/m 18,5 km/h (3 Bft) W-SW 251 2 min 0,000 mm 2,2 UV-I 444 W/m 3,9 C 0,9 C 30,6 km/h (5 Bft) 93,62 %
17.04.2017 12:22 7,7 C 77 % 1015,4 hPa 0,0 l/m 19,8 km/h (3 Bft) W-SW 238 2 min 0,000 mm 2,3 UV-I 481 W/m 3,9 C 0,4 C 27,4 km/h (4 Bft) 97,56 %
17.04.2017 12:24 7,8 C 77 % 1015,4 hPa 0,0 l/m 15,2 km/h (3 Bft) W 261 2 min 0,000 mm 2,4 UV-I 511 W/m 4,0 C 2,4 C 29,0 km/h (5 Bft) 96,00 %
17.04.2017 12:26 7,9 C 77 % 1015,3 hPa 0,0 l/m 19,0 km/h (3 Bft) W 262 2 min 0,000 mm 2,6 UV-I 564 W/m 4,1 C 0,9 C 27,4 km/h (4 Bft) 100,00 %
17.04.2017 12:28 7,9 C 77 % 1015,3 hPa 0,0 l/m 18,1 km/h (3 Bft) SW 226 2 min 0,000 mm 2,6 UV-I 566 W/m 4,1 C 1,3 C 24,1 km/h (4 Bft) 96,43 %
17.04.2017 12:30 7,9 C 78 % 1015,3 hPa 0,0 l/m 13,1 km/h (3 Bft) S-SW 197 2 min 0,000 mm 2,8 UV-I 623 W/m 4,3 C 3,5 C 27,4 km/h (4 Bft) 100,00 %
17.04.2017 12:32 8,0 C 76 % 1015,3 hPa 0,0 l/m 17,3 km/h (3 Bft) SW 227 2 min 0,000 mm 2,8 UV-I 611 W/m 4,0 C 1,7 C 33,8 km/h (5 Bft) 96,43 %
17.04.2017 12:34 8,2 C 76 % 1015,5 hPa 0,0 l/m 17,7 km/h (3 Bft) W-SW 248 2 min 0,000 mm 2,7 UV-I 585 W/m 4,2 C 1,8 C 24,1 km/h (4 Bft) 95,12 %
17.04.2017 12:36 8,2 C 75 % 1015,2 hPa 0,0 l/m 20,8 km/h (4 Bft) S-SO 167 2 min 0,000 mm 2,9 UV-I 656 W/m 4,0 C 0,7 C 29,0 km/h (5 Bft) 96,23 %
17.04.2017 12:38 8,2 C 75 % 1015,2 hPa 0,0 l/m 16,0 km/h (3 Bft) W 279 2 min 0,000 mm 2,5 UV-I 559 W/m 4,0 C 2,5 C 25,7 km/h (4 Bft) 97,56 %
17.04.2017 12:40 8,3 C 75 % 1015,3 hPa 0,0 l/m 15,9 km/h (3 Bft) W-SW 244 2 min 0,000 mm 2,4 UV-I 488 W/m 4,1 C 2,7 C 27,4 km/h (4 Bft) 97,73 %
17.04.2017 12:42 8,3 C 76 % 1015,2 hPa 0,0 l/m 16,2 km/h (3 Bft) SW 236 2 min 0,000 mm 2,5 UV-I 520 W/m 4,3 C 2,6 C 25,7 km/h (4 Bft) 96,30 %
17.04.2017 12:44 8,3 C 75 % 1015,1 hPa 0,0 l/m 18,6 km/h (3 Bft) S-SW 207 2 min 0,000 mm 3,0 UV-I 609 W/m 4,1 C 1,6 C 25,7 km/h (4 Bft) 97,14 %
17.04.2017 12:46 8,5 C 77 % 1015,1 hPa 0,0 l/m 13,6 km/h (3 Bft) SW 234 2 min 0,000 mm 3,4 UV-I 782 W/m 4,7 C 4,0 C 24,1 km/h (4 Bft) 97,62 %
17.04.2017 12:48 8,8 C 75 % 1015,1 hPa 0,0 l/m 16,9 km/h (3 Bft) SW 215 2 min 0,000 mm 3,6 UV-I 899 W/m 4,6 C 2,9 C 24,1 km/h (4 Bft) 90,91 %
17.04.2017 12:50 8,7 C 73 % 1015,1 hPa 0,0 l/m 16,7 km/h (3 Bft) SW 232 2 min 0,000 mm 3,3 UV-I 802 W/m 4,1 C 2,8 C 24,1 km/h (4 Bft) 98,21 %
17.04.2017 12:52 8,6 C 72 % 1015,0 hPa 0,0 l/m 14,7 km/h (3 Bft) SW 232 2 min 0,000 mm 2,8 UV-I 648 W/m 3,8 C 3,6 C 24,1 km/h (4 Bft) 97,56 %
17.04.2017 12:54 8,6 C 74 % 1015,0 hPa 0,0 l/m 15,1 km/h (3 Bft) W-SW 253 2 min 0,000 mm 2,7 UV-I 491 W/m 4,2 C 3,4 C 24,1 km/h (4 Bft) 96,43 %
17.04.2017 12:56 8,6 C 74 % 1014,9 hPa 0,0 l/m 15,3 km/h (3 Bft) SW 219 0 min 0,000 mm 2,4 UV-I 403 W/m 4,2 C 3,3 C 22,5 km/h (4 Bft) 100,00 %
17.04.2017 12:58 8,4 C 73 % 1014,9 hPa 0,0 l/m 17,2 km/h (3 Bft) SW 214 0 min 0,000 mm 2,3 UV-I 406 W/m 3,8 C 2,3 C 27,4 km/h (4 Bft) 75,86 %
17.04.2017 13:00 8,3 C 73 % 1014,8 hPa 0,0 l/m 15,2 km/h (3 Bft) SW 228 0 min 0,254 mm 2,2 UV-I 374 W/m 3,8 C 3,0 C 20,9 km/h (4 Bft) 95,77 %
17.04.2017 13:02 8,2 C 74 % 1014,8 hPa 0,0 l/m 15,4 km/h (3 Bft) S-SW 213 0 min 0,000 mm 2,2 UV-I 411 W/m 3,8 C 2,8 C 29,0 km/h (5 Bft) 95,12 %
17.04.2017 13:04 8,3 C 74 % 1014,8 hPa 0,0 l/m 16,5 km/h (3 Bft) SW 218 2 min 0,000 mm 2,3 UV-I 447 W/m 3,9 C 2,4 C 25,7 km/h (4 Bft) 96,23 %
17.04.2017 13:06 8,3 C 74 % 1014,8 hPa 0,0 l/m 13,9 km/h (3 Bft) SW 225 2 min 0,000 mm 2,4 UV-I 570 W/m 3,9 C 3,6 C 22,5 km/h (4 Bft) 97,37 %
17.04.2017 13:08 8,3 C 74 % 1014,7 hPa 0,0 l/m 16,6 km/h (3 Bft) W-SW 239 2 min 0,000 mm 2,1 UV-I 467 W/m 3,9 C 2,4 C 27,4 km/h (4 Bft) 96,43 %
17.04.2017 13:10 8,3 C 75 % 1014,6 hPa 0,0 l/m 18,0 km/h (3 Bft) S 186 2 min 0,000 mm 2,3 UV-I 485 W/m 4,1 C 1,8 C 33,8 km/h (5 Bft) 94,29 %
17.04.2017 13:12 8,6 C 74 % 1014,6 hPa 0,0 l/m 17,3 km/h (3 Bft) W 259 2 min 0,000 mm 3,3 UV-I 609 W/m 4,2 C 2,5 C 25,7 km/h (4 Bft) 98,00 %
17.04.2017 13:14 8,8 C 74 % 1014,6 hPa 0,0 l/m 13,8 km/h (3 Bft) S-SW 211 2 min 0,000 mm 3,4 UV-I 946 W/m 4,4 C 4,2 C 24,1 km/h (4 Bft) 98,00 %
17.04.2017 13:16 8,9 C 72 % 1014,6 hPa 0,0 l/m 18,3 km/h (3 Bft) S-SW 204 2 min 0,000 mm 2,3 UV-I 664 W/m 4,1 C 2,5 C 27,4 km/h (4 Bft) 92,68 %
17.04.2017 13:18 8,8 C 72 % 1014,6 hPa 0,0 l/m 15,7 km/h (3 Bft) SW 219 2 min 0,000 mm 2,2 UV-I 466 W/m 4,0 C 3,4 C 24,1 km/h (4 Bft) 96,43 %
17.04.2017 13:20 8,6 C 72 % 1014,5 hPa 0,0 l/m 16,8 km/h (3 Bft) SW 215 2 min 0,000 mm 2,3 UV-I 484 W/m 3,8 C 2,7 C 27,4 km/h (4 Bft) 95,74 %
17.04.2017 13:22 8,6 C 72 % 1014,5 hPa 0,0 l/m 16,0 km/h (3 Bft) SW 228 2 min 0,000 mm 2,5 UV-I 532 W/m 3,8 C 3,0 C 24,1 km/h (4 Bft) 92,68 %
17.04.2017 13:24 8,6 C 72 % 1014,5 hPa 0,0 l/m 15,7 km/h (3 Bft) W-SW 243 2 min 0,000 mm 2,5 UV-I 560 W/m 3,8 C 3,1 C 25,7 km/h (4 Bft) 89,36 %
17.04.2017 13:26 8,6 C 72 % 1014,4 hPa 0,0 l/m 15,8 km/h (3 Bft) W 271 2 min 0,000 mm 2,4 UV-I 509 W/m 3,8 C 3,1 C 22,5 km/h (4 Bft) 95,24 %
17.04.2017 13:28 8,7 C 74 % 1014,3 hPa 0,0 l/m 14,1 km/h (3 Bft) W-SW 246 2 min 0,000 mm 3,3 UV-I 494 W/m 4,3 C 4,0 C 20,9 km/h (4 Bft) 96,23 %
17.04.2017 13:30 9,0 C 75 % 1014,3 hPa 0,0 l/m 17,4 km/h (3 Bft) SW 233 2 min 0,000 mm 3,4 UV-I 850 W/m 4,8 C 2,9 C 27,4 km/h (4 Bft) 90,57 %
17.04.2017 13:32 9,1 C 72 % 1014,3 hPa 0,0 l/m 16,8 km/h (3 Bft) S-SW 211 2 min 0,000 mm 2,6 UV-I 773 W/m 4,3 C 3,3 C 24,1 km/h (4 Bft) 92,11 %
17.04.2017 13:34 8,9 C 72 % 1014,3 hPa 0,0 l/m 14,0 km/h (3 Bft) SW 221 0 min 0,000 mm 2,3 UV-I 418 W/m 4,1 C 4,3 C 20,9 km/h (4 Bft) 96,00 %
17.04.2017 13:36 8,9 C 74 % 1014,3 hPa 0,0 l/m 15,2 km/h (3 Bft) W-SW 238 2 min 0,000 mm 2,4 UV-I 434 W/m 4,5 C 3,7 C 24,1 km/h (4 Bft) 96,00 %
17.04.2017 13:38 8,8 C 73 % 1014,3 hPa 0,0 l/m 12,1 km/h (2 Bft) SW 225 2 min 0,000 mm 2,3 UV-I 499 W/m 4,2 C 5,1 C 17,7 km/h (3 Bft) 94,00 %
17.04.2017 13:40 8,7 C 74 % 1014,3 hPa 0,0 l/m 14,1 km/h (3 Bft) S-SW 211 2 min 0,000 mm 2,2 UV-I 467 W/m 4,3 C 4,0 C 20,9 km/h (4 Bft) 93,18 %
17.04.2017 13:42 8,8 C 74 % 1014,3 hPa 0,0 l/m 15,5 km/h (3 Bft) SW 224 0 min 0,000 mm 1,9 UV-I 414 W/m 4,4 C 3,5 C 22,5 km/h (4 Bft) 80,49 %
17.04.2017 13:44 8,7 C 74 % 1014,2 hPa 0,0 l/m 11,4 km/h (2 Bft) W 275 2 min 0,000 mm 2,3 UV-I 458 W/m 4,3 C 5,3 C 16,1 km/h (3 Bft) 100,00 %
17.04.2017 13:46 9,1 C 76 % 1014,1 hPa 0,0 l/m 15,3 km/h (3 Bft) W 273 2 min 0,000 mm 3,2 UV-I 692 W/m 5,1 C 3,9 C 24,1 km/h (4 Bft) 91,89 %
17.04.2017 13:48 9,2 C 73 % 1014,0 hPa 0,0 l/m 15,4 km/h (3 Bft) W-SW 242 2 min 0,000 mm 3,5 UV-I 916 W/m 4,6 C 4,0 C 24,1 km/h (4 Bft) 89,36 %
17.04.2017 13:50 9,2 C 72 % 1014,0 hPa 0,0 l/m 17,5 km/h (3 Bft) W 275 2 min 0,000 mm 3,2 UV-I 947 W/m 4,4 C 3,1 C 27,4 km/h (4 Bft) 84,21 %
17.04.2017 13:52 9,2 C 72 % 1014,0 hPa 0,0 l/m 9,9 km/h (2 Bft) W-SW 252 2 min 0,000 mm 2,4 UV-I 635 W/m 4,4 C 6,8 C 16,1 km/h (3 Bft) 100,00 %
17.04.2017 13:54 9,3 C 74 % 1013,9 hPa 0,0 l/m 9,4 km/h (2 Bft) SW 223 0 min 0,000 mm 2,3 UV-I 406 W/m 4,9 C 7,2 C 14,5 km/h (3 Bft) 98,11 %
17.04.2017 13:56 9,4 C 73 % 1013,9 hPa 0,0 l/m 10,7 km/h (2 Bft) S-SW 212 0 min 0,000 mm 2,0 UV-I 373 W/m 4,8 C 6,5 C 19,3 km/h (3 Bft) 100,00 %
17.04.2017 13:58 9,3 C 71 % 1013,9 hPa 0,0 l/m 17,6 km/h (3 Bft) SW 234 0 min 0,000 mm 2,2 UV-I 375 W/m 4,3 C 3,2 C 24,1 km/h (4 Bft) 100,00 %
17.04.2017 14:00 9,3 C 73 % 1013,9 hPa 0,0 l/m 12,2 km/h (2 Bft) SW 235 0 min 0,279 mm 1,8 UV-I 367 W/m 4,7 C 5,6 C 19,3 km/h (3 Bft) 100,00 %
17.04.2017 14:02 9,2 C 73 % 1013,9 hPa 0,0 l/m 11,0 km/h (2 Bft) W-SW 238 0 min 0,000 mm 1,9 UV-I 364 W/m 4,6 C 6,1 C 19,3 km/h (3 Bft) 100,00 %
17.04.2017 14:04 9,2 C 74 % 1013,8 hPa 0,0 l/m 10,6 km/h (2 Bft) SW 227 0 min 0,000 mm 1,7 UV-I 316 W/m 4,8 C 6,4 C 17,7 km/h (3 Bft) 100,00 %
17.04.2017 14:06 9,2 C 74 % 1013,7 hPa 0,0 l/m 6,9 km/h (2 Bft) SW 227 0 min 0,000 mm 2,5 UV-I 370 W/m 4,8 C 8,8 C 14,5 km/h (3 Bft) 97,92 %
17.04.2017 14:08 9,4 C 74 % 1013,7 hPa 0,0 l/m 11,2 km/h (2 Bft) W-SW 249 0 min 0,000 mm 2,1 UV-I 337 W/m 5,0 C 6,2 C 16,1 km/h (3 Bft) 100,00 %
17.04.2017 14:10 9,4 C 72 % 1013,7 hPa 0,0 l/m 15,6 km/h (3 Bft) W-SW 251 2 min 0,000 mm 1,9 UV-I 420 W/m 4,6 C 4,2 C 22,5 km/h (4 Bft) 98,21 %
17.04.2017 14:12 9,6 C 71 % 1013,6 hPa 0,0 l/m 13,2 km/h (3 Bft) S-SW 212 2 min 0,000 mm 2,7 UV-I 446 W/m 4,6 C 5,5 C 20,9 km/h (4 Bft) 100,00 %
17.04.2017 14:14 9,8 C 71 % 1013,6 hPa 0,0 l/m 17,7 km/h (3 Bft) W 271 2 min 0,000 mm 2,7 UV-I 983 W/m 4,8 C 3,8 C 22,5 km/h (4 Bft) 100,00 %
17.04.2017 14:16 9,9 C 70 % 1013,5 hPa 0,0 l/m 17,2 km/h (3 Bft) S 188 2 min 0,000 mm 2,3 UV-I 506 W/m 4,7 C 4,1 C 27,4 km/h (4 Bft) 100,00 %
17.04.2017 14:18 9,9 C 70 % 1013,4 hPa 0,0 l/m 16,1 km/h (3 Bft) SW 222 2 min 0,000 mm 3,0 UV-I 543 W/m 4,7 C 4,6 C 25,7 km/h (4 Bft) 100,00 %
17.04.2017 14:20 9,8 C 70 % 1013,4 hPa 0,0 l/m 10,3 km/h (2 Bft) SW 217 2 min 0,000 mm 2,4 UV-I 476 W/m 4,6 C 7,2 C 19,3 km/h (3 Bft) 97,78 %
17.04.2017 14:22 9,9 C 69 % 1013,3 hPa 0,0 l/m 17,0 km/h (3 Bft) SW 225 2 min 0,000 mm 3,5 UV-I 478 W/m 4,5 C 4,2 C 24,1 km/h (4 Bft) 100,00 %
17.04.2017 14:24 10,2 C 69 % 1013,2 hPa 0,0 l/m 13,7 km/h (3 Bft) S-SW 207 2 min 0,000 mm 3,6 UV-I 797 W/m 4,8 C 5,9 C 20,9 km/h (4 Bft) 100,00 %
17.04.2017 14:26 10,4 C 69 % 1013,2 hPa 0,0 l/m 10,6 km/h (2 Bft) S 188 2 min 0,000 mm 3,4 UV-I 784 W/m 5,0 C 7,7 C 17,7 km/h (3 Bft) 100,00 %
17.04.2017 14:28 10,6 C 70 % 1013,2 hPa 0,0 l/m 13,3 km/h (3 Bft) SW 233 2 min 0,000 mm 3,5 UV-I 795 W/m 5,4 C 6,6 C 24,1 km/h (4 Bft) 100,00 %
17.04.2017 14:30 10,6 C 67 % 1013,2 hPa 0,0 l/m 13,3 km/h (3 Bft) S 191 2 min 0,000 mm 3,5 UV-I 892 W/m 4,7 C 6,6 C 20,9 km/h (4 Bft) 100,00 %
17.04.2017 14:32 10,7 C 66 % 1013,1 hPa 0,0 l/m 14,6 km/h (3 Bft) W 261 2 min 0,000 mm 2,9 UV-I 962 W/m 4,6 C 6,1 C 24,1 km/h (4 Bft) 100,00 %
17.04.2017 14:34 10,6 C 65 % 1013,1 hPa 0,0 l/m 13,3 km/h (3 Bft) SW 235 2 min 0,000 mm 2,6 UV-I 619 W/m 4,3 C 6,6 C 19,3 km/h (3 Bft) 100,00 %
17.04.2017 14:36 10,4 C 67 % 1013,1 hPa 0,0 l/m 15,7 km/h (3 Bft) S-SW 206 0 min 0,000 mm 1,8 UV-I 331 W/m 4,5 C 5,3 C 24,1 km/h (4 Bft) 100,00 %
17.04.2017 14:38 10,3 C 67 % 1013,0 hPa 0,0 l/m 15,5 km/h (3 Bft) S-SW 203 0 min 0,000 mm 1,9 UV-I 392 W/m 4,4 C 5,3 C 25,7 km/h (4 Bft) 100,00 %
17.04.2017 14:40 10,2 C 66 % 1012,9 hPa 0,0 l/m 16,5 km/h (3 Bft) SW 234 0 min 0,000 mm 1,8 UV-I 371 W/m 4,1 C 4,8 C 25,7 km/h (4 Bft) 100,00 %
17.04.2017 14:42 10,2 C 68 % 1012,9 hPa 0,0 l/m 11,3 km/h (2 Bft) W-SW 239 0 min 0,000 mm 1,7 UV-I 326 W/m 4,6 C 7,1 C 17,7 km/h (3 Bft) 97,73 %
17.04.2017 14:44 10,3 C 68 % 1012,9 hPa 0,0 l/m 11,6 km/h (2 Bft) W-SW 246 0 min 0,000 mm 1,9 UV-I 331 W/m 4,7 C 7,1 C 19,3 km/h (3 Bft) 100,00 %
17.04.2017 14:46 10,5 C 71 % 1012,8 hPa 0,0 l/m 9,8 km/h (2 Bft) SO 140 0 min 0,000 mm 1,7 UV-I 378 W/m 5,5 C 8,3 C 16,1 km/h (3 Bft) 100,00 %
17.04.2017 14:48 10,6 C 68 % 1012,8 hPa 0,0 l/m 12,6 km/h (3 Bft) S-SW 207 0 min 0,000 mm 1,7 UV-I 381 W/m 4,9 C 6,9 C 25,7 km/h (4 Bft) 98,00 %
17.04.2017 14:50 10,5 C 68 % 1012,8 hPa 0,0 l/m 10,9 km/h (2 Bft) SW 228 2 min 0,000 mm 2,0 UV-I 434 W/m 4,8 C 7,7 C 20,9 km/h (4 Bft) 100,00 %
17.04.2017 14:52 10,4 C 67 % 1012,7 hPa 0,0 l/m 13,9 km/h (3 Bft) W-NW 289 2 min 0,000 mm 2,7 UV-I 499 W/m 4,5 C 6,1 C 27,4 km/h (4 Bft) 100,00 %
17.04.2017 14:54 10,4 C 67 % 1012,6 hPa 0,0 l/m 16,2 km/h (3 Bft) SW 227 2 min 0,000 mm 2,6 UV-I 499 W/m 4,5 C 5,1 C 24,1 km/h (4 Bft) 98,31 %
17.04.2017 14:56 10,4 C 67 % 1012,6 hPa 0,0 l/m 9,3 km/h (2 Bft) S 187 0 min 0,000 mm 2,0 UV-I 383 W/m 4,5 C 8,4 C 19,3 km/h (3 Bft) 97,73 %
17.04.2017 14:58 10,3 C 68 % 1012,5 hPa 0,0 l/m 11,0 km/h (2 Bft) W-SW 244 0 min 0,000 mm 1,7 UV-I 299 W/m 4,7 C 7,4 C 19,3 km/h (3 Bft) 97,87 %
17.04.2017 15:00 10,3 C 67 % 1012,5 hPa 0,0 l/m 15,3 km/h (3 Bft) S-SW 202 0 min 0,305 mm 1,3 UV-I 220 W/m 4,4 C 5,4 C 25,7 km/h (4 Bft) 94,74 %
17.04.2017 15:02 10,2 C 66 % 1012,5 hPa 0,0 l/m 16,6 km/h (3 Bft) SW 222 0 min 0,000 mm 1,2 UV-I 248 W/m 4,1 C 4,7 C 24,1 km/h (4 Bft) 98,00 %
17.04.2017 15:04 10,2 C 68 % 1012,4 hPa 0,0 l/m 11,9 km/h (2 Bft) SW 229 2 min 0,000 mm 1,7 UV-I 428 W/m 4,6 C 6,8 C 19,3 km/h (3 Bft) 98,11 %
17.04.2017 15:06 10,1 C 68 % 1012,4 hPa 0,0 l/m 14,7 km/h (3 Bft) W 259 0 min 0,000 mm 1,2 UV-I 304 W/m 4,5 C 5,4 C 22,5 km/h (4 Bft) 95,12 %
17.04.2017 15:08 10,1 C 67 % 1012,4 hPa 0,0 l/m 22,4 km/h (4 Bft) W-SW 246 0 min 0,000 mm 1,1 UV-I 244 W/m 4,3 C 2,7 C 32,2 km/h (5 Bft) 95,74 %
17.04.2017 15:10 10,1 C 67 % 1012,4 hPa 0,0 l/m 15,3 km/h (3 Bft) SW 217 0 min 0,000 mm 1,3 UV-I 291 W/m 4,3 C 5,1 C 25,7 km/h (4 Bft) 98,00 %
17.04.2017 15:12 10,2 C 68 % 1012,4 hPa 0,0 l/m 15,5 km/h (3 Bft) W-SW 251 0 min 0,000 mm 1,4 UV-I 338 W/m 4,6 C 5,2 C 27,4 km/h (4 Bft) 97,56 %
17.04.2017 15:14 10,2 C 67 % 1012,3 hPa 0,0 l/m 11,6 km/h (2 Bft) S 176 0 min 0,000 mm 1,4 UV-I 325 W/m 4,4 C 6,9 C 22,5 km/h (4 Bft) 98,00 %
17.04.2017 15:16 10,2 C 66 % 1012,1 hPa 0,0 l/m 17,6 km/h (3 Bft) S-SW 193 0 min 0,000 mm 1,3 UV-I 315 W/m 4,1 C 4,4 C 30,6 km/h (5 Bft) 100,00 %
17.04.2017 15:18 10,2 C 66 % 1012,1 hPa 0,0 l/m 18,2 km/h (3 Bft) SW 229 0 min 0,000 mm 1,3 UV-I 353 W/m 4,1 C 4,2 C 27,4 km/h (4 Bft) 97,47 %
17.04.2017 15:20 10,3 C 68 % 1012,1 hPa 0,0 l/m 15,6 km/h (3 Bft) W-SW 241 2 min 0,000 mm 1,4 UV-I 421 W/m 4,7 C 5,3 C 25,7 km/h (4 Bft) 97,62 %
17.04.2017 15:22 10,6 C 68 % 1012,1 hPa 0,0 l/m 12,8 km/h (3 Bft) SW 232 2 min 0,000 mm 1,5 UV-I 399 W/m 4,9 C 6,8 C 25,7 km/h (4 Bft) 98,11 %
17.04.2017 15:24 10,7 C 65 % 1012,1 hPa 0,0 l/m 13,4 km/h (3 Bft) W-SW 255 0 min 0,000 mm 1,4 UV-I 357 W/m 4,4 C 6,7 C 29,0 km/h (5 Bft) 97,37 %
17.04.2017 15:26 10,7 C 64 % 1011,9 hPa 0,0 l/m 19,6 km/h (3 Bft) W 267 2 min 0,000 mm 1,4 UV-I 396 W/m 4,2 C 4,3 C 29,0 km/h (5 Bft) 94,83 %
17.04.2017 15:28 10,8 C 63 % 1011,9 hPa 0,0 l/m 17,6 km/h (3 Bft) SW 229 2 min 0,000 mm 1,5 UV-I 392 W/m 4,0 C 5,1 C 30,6 km/h (5 Bft) 97,44 %
17.04.2017 15:30 10,7 C 63 % 1011,9 hPa 0,0 l/m 14,3 km/h (3 Bft) W-SW 250 0 min 0,000 mm 1,5 UV-I 360 W/m 3,9 C 6,3 C 24,1 km/h (4 Bft) 100,00 %
17.04.2017 15:32 10,7 C 63 % 1011,8 hPa 0,0 l/m 14,7 km/h (3 Bft) W-SW 239 2 min 0,000 mm 1,3 UV-I 372 W/m 3,9 C 6,1 C 19,3 km/h (3 Bft) 100,00 %
17.04.2017 15:34 10,7 C 64 % 1011,8 hPa 0,0 l/m 17,8 km/h (3 Bft) SW 232 0 min 0,000 mm 1,3 UV-I 320 W/m 4,2 C 4,9 C 25,7 km/h (4 Bft) 100,00 %
17.04.2017 15:36 10,7 C 63 % 1011,7 hPa 0,0 l/m 18,0 km/h (3 Bft) W-SW 241 0 min 0,000 mm 1,2 UV-I 263 W/m 3,9 C 4,9 C 27,4 km/h (4 Bft) 100,00 %
17.04.2017 15:38 10,7 C 63 % 1011,6 hPa 0,0 l/m 19,2 km/h (3 Bft) S-SW 200 0 min 0,000 mm 1,0 UV-I 240 W/m 3,9 C 4,4 C 25,7 km/h (4 Bft) 100,00 %
17.04.2017 15:40 10,6 C 63 % 1011,6 hPa 0,0 l/m 18,7 km/h (3 Bft) SW 227 0 min 0,000 mm 0,9 UV-I 242 W/m 3,9 C 4,5 C 29,0 km/h (5 Bft) 100,00 %
17.04.2017 15:42 10,6 C 64 % 1011,5 hPa 0,0 l/m 21,0 km/h (4 Bft) W-SW 241 0 min 0,000 mm 0,9 UV-I 245 W/m 4,1 C 3,8 C 30,6 km/h (5 Bft) 100,00 %
17.04.2017 15:44 10,6 C 64 % 1011,5 hPa 0,0 l/m 18,4 km/h (3 Bft) SW 225 0 min 0,000 mm 0,9 UV-I 224 W/m 4,1 C 4,6 C 35,4 km/h (5 Bft) 95,45 %
17.04.2017 15:46 10,6 C 64 % 1011,5 hPa 0,0 l/m 13,8 km/h (3 Bft) W-SW 238 0 min 0,000 mm 0,7 UV-I 179 W/m 4,1 C 6,4 C 22,5 km/h (4 Bft) 97,56 %
17.04.2017 15:48 10,6 C 65 % 1011,5 hPa 0,0 l/m 14,9 km/h (3 Bft) SW 214 0 min 0,000 mm 0,3 UV-I 120 W/m 4,3 C 5,9 C 27,4 km/h (4 Bft) 98,00 %
17.04.2017 15:50 10,4 C 64 % 1011,4 hPa 0,0 l/m 19,0 km/h (3 Bft) S 190 0 min 0,000 mm 0,0 UV-I 82 W/m 3,9 C 4,1 C 25,7 km/h (4 Bft) 97,73 %
17.04.2017 15:52 10,3 C 64 % 1011,4 hPa 0,0 l/m 13,3 km/h (3 Bft) SW 227 0 min 0,000 mm 0,0 UV-I 83 W/m 3,8 C 6,2 C 19,3 km/h (3 Bft) 100,00 %
17.04.2017 15:54 10,3 C 66 % 1011,4 hPa 0,0 l/m 20,8 km/h (4 Bft) S-SW 211 0 min 0,000 mm 0,0 UV-I 96 W/m 4,2 C 3,4 C 30,6 km/h (5 Bft) 100,00 %
17.04.2017 15:56 10,3 C 66 % 1011,4 hPa 0,0 l/m 20,8 km/h (4 Bft) W 259 0 min 0,000 mm 0,0 UV-I 113 W/m 4,2 C 3,4 C 29,0 km/h (5 Bft) 100,00 %
17.04.2017 15:58 10,2 C 64 % 1011,5 hPa 0,0 l/m 30,8 km/h (5 Bft) SW 233 0 min 0,000 mm 0,3 UV-I 133 W/m 3,7 C 0,8 C 49,9 km/h (6 Bft) 100,00 %
17.04.2017 16:00 10,1 C 66 % 1011,4 hPa 0,0 l/m 26,2 km/h (4 Bft) S-SW 204 0 min 0,178 mm 0,6 UV-I 146 W/m 4,0 C 1,7 C 46,7 km/h (6 Bft) 98,11 %
17.04.2017 16:02 9,9 C 67 % 1011,5 hPa 0,0 l/m 25,1 km/h (4 Bft) W 261 0 min 0,000 mm 0,2 UV-I 113 W/m 4,1 C 1,7 C 41,8 km/h (6 Bft) 100,00 %
17.04.2017 16:04 9,8 C 68 % 1011,5 hPa 0,0 l/m 29,3 km/h (5 Bft) SW 234 0 min 0,000 mm 0,0 UV-I 86 W/m 4,2 C 0,5 C 43,5 km/h (6 Bft) 100,00 %
17.04.2017 16:06 9,7 C 69 % 1011,5 hPa 0,0 l/m 34,3 km/h (5 Bft) W-SW 237 0 min 0,000 mm 0,0 UV-I 63 W/m 4,3 C -0,6 C 45,1 km/h (6 Bft) 97,87 %
17.04.2017 16:08 9,5 C 70 % 1011,7 hPa 0,0 l/m 34,0 km/h (5 Bft) W 268 0 min 0,000 mm 0,0 UV-I 47 W/m 4,3 C -0,9 C 51,5 km/h (7 Bft) 98,11 %
17.04.2017 16:10 9,3 C 72 % 1011,8 hPa 0,2 l/m 27,7 km/h (4 Bft) SW 234 0 min 0,000 mm 0,0 UV-I 49 W/m 4,5 C 0,2 C 43,5 km/h (6 Bft) 100,00 %
17.04.2017 16:12 9,1 C 73 % 1011,8 hPa 0,0 l/m 24,5 km/h (4 Bft) W-SW 254 0 min 0,000 mm 0,0 UV-I 52 W/m 4,5 C 0,7 C 38,6 km/h (5 Bft) 97,87 %
17.04.2017 16:14 8,8 C 75 % 1011,8 hPa 0,0 l/m 24,1 km/h (4 Bft) W-SW 254 0 min 0,000 mm 0,0 UV-I 53 W/m 4,6 C 0,5 C 40,2 km/h (6 Bft) 98,00 %
17.04.2017 16:16 8,6 C 76 % 1011,8 hPa 0,0 l/m 20,2 km/h (4 Bft) W 261 0 min 0,000 mm 0,0 UV-I 61 W/m 4,6 C 1,4 C 30,6 km/h (5 Bft) 97,87 %
17.04.2017 16:18 8,4 C 78 % 1011,8 hPa 0,0 l/m 18,0 km/h (3 Bft) SW 231 0 min 0,000 mm 0,0 UV-I 80 W/m 4,8 C 2,0 C 30,6 km/h (5 Bft) 95,74 %
17.04.2017 16:20 8,2 C 79 % 1011,8 hPa 0,0 l/m 16,3 km/h (3 Bft) W 267 0 min 0,000 mm 0,0 UV-I 98 W/m 4,8 C 2,4 C 30,6 km/h (5 Bft) 97,37 %
17.04.2017 16:22 8,1 C 81 % 1011,8 hPa 0,0 l/m 13,6 km/h (3 Bft) W 259 0 min 0,000 mm 0,0 UV-I 77 W/m 5,0 C 3,5 C 16,1 km/h (3 Bft) 92,86 %
17.04.2017 16:24 8,0 C 81 % 1011,8 hPa 0,0 l/m 16,5 km/h (3 Bft) W-SW 242 0 min 0,000 mm 0,0 UV-I 71 W/m 4,9 C 2,1 C 25,7 km/h (4 Bft) 97,37 %
17.04.2017 16:26 7,9 C 82 % 1011,8 hPa 0,0 l/m 13,1 km/h (3 Bft) W-SW 240 0 min 0,000 mm 0,0 UV-I 67 W/m 5,0 C 3,5 C 22,5 km/h (4 Bft) 96,61 %
17.04.2017 16:28 7,8 C 83 % 1011,8 hPa 0,0 l/m 16,7 km/h (3 Bft) W 271 0 min 0,000 mm 0,0 UV-I 63 W/m 5,1 C 1,7 C 25,7 km/h (4 Bft) 92,11 %
17.04.2017 16:30 7,8 C 83 % 1011,8 hPa 0,0 l/m 16,4 km/h (3 Bft) W 264 0 min 0,000 mm 0,0 UV-I 63 W/m 5,1 C 1,8 C 24,1 km/h (4 Bft) 98,00 %
17.04.2017 16:32 7,8 C 83 % 1011,8 hPa 0,0 l/m 8,6 km/h (2 Bft) W-SW 244 0 min 0,000 mm 0,0 UV-I 51 W/m 5,1 C 6,1 C 16,1 km/h (3 Bft) 95,74 %
17.04.2017 16:34 7,8 C 84 % 1011,6 hPa 0,0 l/m 14,0 km/h (3 Bft) W-SW 251 0 min 0,000 mm 0,0 UV-I 52 W/m 5,3 C 2,9 C 19,3 km/h (3 Bft) 96,30 %
17.04.2017 16:36 7,8 C 84 % 1011,6 hPa 0,0 l/m 15,3 km/h (3 Bft) W-SW 255 0 min 0,000 mm 0,0 UV-I 68 W/m 5,3 C 2,3 C 25,7 km/h (4 Bft) 95,89 %
17.04.2017 16:38 7,8 C 84 % 1011,6 hPa 0,0 l/m 14,9 km/h (3 Bft) W-SW 247 0 min 0,000 mm 0,0 UV-I 71 W/m 5,3 C 2,5 C 24,1 km/h (4 Bft) 97,73 %
17.04.2017 16:40 7,8 C 84 % 1011,7 hPa 0,0 l/m 12,9 km/h (3 Bft) W-SW 253 0 min 0,000 mm 0,0 UV-I 72 W/m 5,3 C 3,5 C 17,7 km/h (3 Bft) 95,24 %
17.04.2017 16:42 7,8 C 84 % 1011,6 hPa 0,0 l/m 12,3 km/h (3 Bft) W-SW 239 0 min 0,000 mm 0,0 UV-I 65 W/m 5,3 C 3,8 C 20,9 km/h (4 Bft) 98,08 %
17.04.2017 16:44 7,8 C 84 % 1011,7 hPa 0,0 l/m 12,6 km/h (3 Bft) SW 232 0 min 0,000 mm 0,0 UV-I 57 W/m 5,3 C 3,7 C 19,3 km/h (3 Bft) 97,44 %
17.04.2017 16:46 7,8 C 84 % 1011,6 hPa 0,2 l/m 18,0 km/h (3 Bft) W-SW 242 0 min 0,000 mm 0,0 UV-I 53 W/m 5,3 C 1,2 C 24,1 km/h (4 Bft) 94,00 %
17.04.2017 16:48 7,8 C 84 % 1011,6 hPa 0,0 l/m 17,0 km/h (3 Bft) S-SW 207 0 min 0,000 mm 0,0 UV-I 51 W/m 5,3 C 1,6 C 24,1 km/h (4 Bft) 95,12 %
17.04.2017 16:50 7,8 C 84 % 1011,6 hPa 0,0 l/m 15,2 km/h (3 Bft) W-SW 246 0 min 0,000 mm 0,0 UV-I 50 W/m 5,3 C 2,4 C 25,7 km/h (4 Bft) 92,86 %
17.04.2017 16:52 7,8 C 84 % 1011,6 hPa 0,0 l/m 14,5 km/h (3 Bft) W-SW 240 0 min 0,000 mm 0,0 UV-I 45 W/m 5,3 C 2,7 C 20,9 km/h (4 Bft) 95,12 %
17.04.2017 16:54 7,8 C 85 % 1011,5 hPa 0,2 l/m 20,2 km/h (4 Bft) SW 232 0 min 0,000 mm 0,0 UV-I 40 W/m 5,4 C 0,4 C 30,6 km/h (5 Bft) 93,18 %
17.04.2017 16:56 7,7 C 85 % 1011,6 hPa 0,0 l/m 16,0 km/h (3 Bft) SW 234 0 min 0,000 mm 0,0 UV-I 34 W/m 5,3 C 1,9 C 22,5 km/h (4 Bft) 96,23 %
17.04.2017 16:58 7,7 C 84 % 1011,5 hPa 0,2 l/m 20,4 km/h (4 Bft) SW 236 0 min 0,000 mm 0,0 UV-I 34 W/m 5,2 C 0,2 C 27,4 km/h (4 Bft) 96,23 %
17.04.2017 17:00 7,6 C 84 % 1011,5 hPa 0,2 l/m 16,9 km/h (3 Bft) SW 219 0 min 0,076 mm 0,0 UV-I 38 W/m 5,1 C 1,4 C 27,4 km/h (4 Bft) 95,74 %
17.04.2017 17:02 7,6 C 86 % 1011,5 hPa 0,0 l/m 15,2 km/h (3 Bft) W-SW 258 0 min 0,000 mm 0,0 UV-I 41 W/m 5,4 C 2,1 C 25,7 km/h (4 Bft) 95,45 %
17.04.2017 17:04 7,5 C 86 % 1011,4 hPa 0,0 l/m 17,4 km/h (3 Bft) W-SW 248 0 min 0,000 mm 0,0 UV-I 45 W/m 5,3 C 1,1 C 27,4 km/h (4 Bft) 93,18 %
17.04.2017 17:06 7,4 C 86 % 1011,3 hPa 0,2 l/m 19,4 km/h (3 Bft) W-SW 240 0 min 0,000 mm 0,0 UV-I 49 W/m 5,2 C 0,1 C 30,6 km/h (5 Bft) 95,45 %
17.04.2017 17:08 7,4 C 86 % 1011,3 hPa 0,0 l/m 14,2 km/h (3 Bft) SW 224 0 min 0,000 mm 0,0 UV-I 47 W/m 5,2 C 2,4 C 25,7 km/h (4 Bft) 92,86 %
17.04.2017 17:10 7,3 C 86 % 1011,2 hPa 0,2 l/m 18,8 km/h (3 Bft) S-SW 192 0 min 0,000 mm 0,0 UV-I 46 W/m 5,1 C 0,2 C 30,6 km/h (5 Bft) 97,73 %
17.04.2017 17:12 7,3 C 86 % 1011,1 hPa 0,0 l/m 21,2 km/h (4 Bft) SW 229 0 min 0,000 mm 0,0 UV-I 47 W/m 5,1 C -0,6 C 37,0 km/h (5 Bft) 100,00 %
17.04.2017 17:14 7,3 C 86 % 1011,2 hPa 0,0 l/m 17,4 km/h (3 Bft) W-SW 242 0 min 0,000 mm 0,0 UV-I 49 W/m 5,1 C 0,8 C 29,0 km/h (5 Bft) 97,87 %
17.04.2017 17:16 7,3 C 86 % 1011,2 hPa 0,0 l/m 19,8 km/h (3 Bft) SW 233 0 min 0,000 mm 0,0 UV-I 46 W/m 5,1 C -0,1 C 29,0 km/h (5 Bft) 96,23 %
17.04.2017 17:18 7,2 C 86 % 1011,1 hPa 0,2 l/m 11,6 km/h (2 Bft) W-SW 246 0 min 0,000 mm 0,0 UV-I 44 W/m 5,0 C 3,5 C 24,1 km/h (4 Bft) 97,73 %
17.04.2017 17:20 7,2 C 87 % 1011,1 hPa 0,0 l/m 15,9 km/h (3 Bft) S-SW 192 0 min 0,000 mm 0,0 UV-I 49 W/m 5,2 C 1,3 C 25,7 km/h (4 Bft) 97,62 %
17.04.2017 17:22 7,2 C 87 % 1011,0 hPa 0,0 l/m 14,5 km/h (3 Bft) S-SW 208 0 min 0,000 mm 0,0 UV-I 78 W/m 5,2 C 2,0 C 19,3 km/h (3 Bft) 96,15 %
17.04.2017 17:24 7,2 C 87 % 1011,0 hPa 0,0 l/m 14,0 km/h (3 Bft) S 191 0 min 0,000 mm 0,0 UV-I 109 W/m 5,2 C 2,2 C 24,1 km/h (4 Bft) 95,24 %
17.04.2017 17:26 7,2 C 87 % 1011,0 hPa 0,2 l/m 12,5 km/h (3 Bft) S-SW 206 0 min 0,000 mm 0,0 UV-I 129 W/m 5,2 C 3,0 C 17,7 km/h (3 Bft) 100,00 %
17.04.2017 17:28 7,2 C 88 % 1011,0 hPa 0,0 l/m 14,2 km/h (3 Bft) S-SW 203 0 min 0,000 mm 0,0 UV-I 134 W/m 5,3 C 2,1 C 25,7 km/h (4 Bft) 100,00 %
17.04.2017 17:30 7,2 C 87 % 1011,0 hPa 0,0 l/m 14,3 km/h (3 Bft) SW 228 0 min 0,000 mm 0,0 UV-I 127 W/m 5,2 C 2,1 C 22,5 km/h (4 Bft) 100,00 %
17.04.2017 17:32 7,2 C 87 % 1011,0 hPa 0,0 l/m 12,6 km/h (3 Bft) S-SW 202 0 min 0,000 mm 0,0 UV-I 100 W/m 5,2 C 3,0 C 20,9 km/h (4 Bft) 100,00 %
17.04.2017 17:34 7,2 C 87 % 1010,9 hPa 0,0 l/m 13,3 km/h (3 Bft) S-SO 166 0 min 0,000 mm 0,0 UV-I 80 W/m 5,2 C 2,6 C 22,5 km/h (4 Bft) 97,37 %
17.04.2017 17:36 7,2 C 87 % 1010,9 hPa 0,0 l/m 11,6 km/h (2 Bft) S-SW 212 0 min 0,000 mm 0,0 UV-I 67 W/m 5,2 C 3,5 C 20,9 km/h (4 Bft) 96,23 %
17.04.2017 17:38 7,2 C 87 % 1010,9 hPa 0,0 l/m 12,0 km/h (2 Bft) SW 228 0 min 0,000 mm 0,0 UV-I 60 W/m 5,2 C 3,3 C 17,7 km/h (3 Bft) 97,73 %
17.04.2017 17:40 7,3 C 87 % 1010,9 hPa 0,0 l/m 12,7 km/h (3 Bft) S 184 0 min 0,000 mm 0,0 UV-I 60 W/m 5,3 C 3,0 C 19,3 km/h (3 Bft) 97,87 %
17.04.2017 17:42 7,2 C 87 % 1010,8 hPa 0,0 l/m 8,6 km/h (2 Bft) S-SW 206 0 min 0,000 mm 0,0 UV-I 65 W/m 5,2 C 5,5 C 12,9 km/h (3 Bft) 100,00 %
17.04.2017 17:44 7,2 C 87 % 1010,8 hPa 0,0 l/m 11,1 km/h (2 Bft) S-SW 208 0 min 0,000 mm 0,0 UV-I 68 W/m 5,2 C 3,8 C 17,7 km/h (3 Bft) 98,11 %
17.04.2017 17:46 7,2 C 87 % 1010,8 hPa 0,0 l/m 13,6 km/h (3 Bft) SW 219 0 min 0,000 mm 0,0 UV-I 71 W/m 5,2 C 2,4 C 19,3 km/h (3 Bft) 100,00 %
17.04.2017 17:48 7,3 C 87 % 1010,8 hPa 0,0 l/m 11,8 km/h (2 Bft) SW 217 0 min 0,000 mm 0,0 UV-I 74 W/m 5,3 C 3,5 C 20,9 km/h (4 Bft) 93,62 %
17.04.2017 17:50 7,3 C 87 % 1010,8 hPa 0,0 l/m 13,1 km/h (3 Bft) W-SW 248 0 min 0,000 mm 0,0 UV-I 76 W/m 5,3 C 2,8 C 19,3 km/h (3 Bft) 90,91 %
17.04.2017 17:52 7,3 C 87 % 1010,8 hPa 0,0 l/m 13,9 km/h (3 Bft) SW 214 0 min 0,000 mm 0,0 UV-I 77 W/m 5,3 C 2,4 C 22,5 km/h (4 Bft) 100,00 %
17.04.2017 17:54 7,3 C 87 % 1010,8 hPa 0,0 l/m 12,6 km/h (3 Bft) S-SW 194 0 min 0,000 mm 0,0 UV-I 73 W/m 5,3 C 3,1 C 19,3 km/h (3 Bft) 100,00 %
17.04.2017 17:56 7,3 C 87 % 1010,9 hPa 0,0 l/m 12,4 km/h (3 Bft) S-SW 201 0 min 0,000 mm 0,0 UV-I 69 W/m 5,3 C 3,2 C 22,5 km/h (4 Bft) 100,00 %
17.04.2017 17:58 7,4 C 87 % 1010,9 hPa 0,0 l/m 12,6 km/h (3 Bft) SW 221 0 min 0,000 mm 0,0 UV-I 62 W/m 5,4 C 3,2 C 20,9 km/h (4 Bft) 98,44 %
17.04.2017 18:00 7,4 C 87 % 1010,8 hPa 0,0 l/m 15,4 km/h (3 Bft) SW 217 0 min 0,051 mm 0,0 UV-I 53 W/m 5,4 C 1,8 C 32,2 km/h (5 Bft) 97,87 %
17.04.2017 18:02 7,4 C 87 % 1010,9 hPa 0,0 l/m 16,3 km/h (3 Bft) S-SW 213 0 min 0,000 mm 0,0 UV-I 50 W/m 5,4 C 1,4 C 24,1 km/h (4 Bft) 98,00 %
17.04.2017 18:04 7,4 C 86 % 1010,8 hPa 0,0 l/m 21,1 km/h (4 Bft) W 267 0 min 0,000 mm 0,0 UV-I 60 W/m 5,2 C -0,5 C 38,6 km/h (5 Bft) 100,00 %
17.04.2017 18:06 7,4 C 85 % 1010,8 hPa 0,0 l/m 17,6 km/h (3 Bft) S 190 0 min 0,000 mm 0,0 UV-I 73 W/m 5,0 C 0,8 C 30,6 km/h (5 Bft) 100,00 %
17.04.2017 18:08 7,5 C 85 % 1010,8 hPa 0,0 l/m 16,0 km/h (3 Bft) SW 221 0 min 0,000 mm 0,0 UV-I 68 W/m 5,1 C 1,7 C 22,5 km/h (4 Bft) 100,00 %
17.04.2017 18:10 7,5 C 86 % 1010,7 hPa 0,0 l/m 14,7 km/h (3 Bft) W-SW 248 0 min 0,000 mm 0,0 UV-I 59 W/m 5,3 C 2,2 C 22,5 km/h (4 Bft) 97,73 %
17.04.2017 18:12 7,5 C 86 % 1010,8 hPa 0,0 l/m 15,0 km/h (3 Bft) SW 229 0 min 0,000 mm 0,0 UV-I 58 W/m 5,3 C 2,1 C 20,9 km/h (4 Bft) 95,74 %
17.04.2017 18:14 7,4 C 86 % 1010,7 hPa 0,0 l/m 14,9 km/h (3 Bft) S-SW 196 0 min 0,000 mm 0,0 UV-I 55 W/m 5,2 C 2,0 C 24,1 km/h (4 Bft) 100,00 %
17.04.2017 18:16 7,4 C 86 % 1010,7 hPa 0,0 l/m 16,4 km/h (3 Bft) S-SW 205 0 min 0,000 mm 0,0 UV-I 47 W/m 5,2 C 1,4 C 25,7 km/h (4 Bft) 100,00 %
17.04.2017 18:18 7,4 C 86 % 1010,6 hPa 0,2 l/m 14,7 km/h (3 Bft) S-SW 207 0 min 0,000 mm 0,0 UV-I 41 W/m 5,2 C 2,1 C 24,1 km/h (4 Bft) 98,21 %
17.04.2017 18:20 7,4 C 86 % 1010,6 hPa 0,0 l/m 18,4 km/h (3 Bft) S 187 0 min 0,000 mm 0,0 UV-I 39 W/m 5,2 C 0,5 C 25,7 km/h (4 Bft) 95,12 %
17.04.2017 18:23 7,4 C 86 % 1010,6 hPa 0,0 l/m 19,3 km/h (3 Bft) SW 227 0 min 0,000 mm 0,0 UV-I 38 W/m 5,2 C 0,2 C 29,0 km/h (5 Bft) 100,00 %
17.04.2017 18:24 7,3 C 86 % 1010,6 hPa 0,0 l/m 16,5 km/h (3 Bft) S-SW 206 0 min 0,000 mm 0,0 UV-I 38 W/m 5,1 C 1,2 C 24,1 km/h (4 Bft) 100,00 %
17.04.2017 18:26 7,3 C 86 % 1010,5 hPa 0,0 l/m 21,6 km/h (4 Bft) SW 220 0 min 0,000 mm 0,0 UV-I 46 W/m 5,1 C -0,8 C 35,4 km/h (5 Bft) 100,00 %
17.04.2017 18:28 7,3 C 86 % 1010,4 hPa 0,0 l/m 17,6 km/h (3 Bft) SW 222 0 min 0,000 mm 0,0 UV-I 56 W/m 5,1 C 0,7 C 38,6 km/h (5 Bft) 100,00 %
17.04.2017 18:30 7,3 C 86 % 1010,3 hPa 0,0 l/m 19,7 km/h (3 Bft) S-SW 203 0 min 0,000 mm 0,0 UV-I 48 W/m 5,1 C -0,1 C 32,2 km/h (5 Bft) 100,00 %
17.04.2017 18:32 7,3 C 86 % 1010,4 hPa 0,0 l/m 18,4 km/h (3 Bft) SW 217 0 min 0,000 mm 0,0 UV-I 40 W/m 5,1 C 0,4 C 32,2 km/h (5 Bft) 98,08 %
17.04.2017 18:34 7,3 C 86 % 1010,3 hPa 0,0 l/m 18,8 km/h (3 Bft) S 188 0 min 0,000 mm 0,0 UV-I 36 W/m 5,1 C 0,2 C 29,0 km/h (5 Bft) 100,00 %
17.04.2017 18:36 7,3 C 86 % 1010,3 hPa 0,0 l/m 15,7 km/h (3 Bft) S-SW 198 0 min 0,000 mm 0,0 UV-I 33 W/m 5,1 C 1,5 C 25,7 km/h (4 Bft) 100,00 %
17.04.2017 18:38 7,4 C 86 % 1010,3 hPa 0,0 l/m 23,2 km/h (4 Bft) S-SW 207 0 min 0,000 mm 0,0 UV-I 32 W/m 5,2 C -1,1 C 32,2 km/h (5 Bft) 97,56 %
17.04.2017 18:40 7,4 C 86 % 1010,3 hPa 0,0 l/m 26,4 km/h (4 Bft) SW 235 0 min 0,000 mm 0,0 UV-I 30 W/m 5,2 C -2,1 C 37,0 km/h (5 Bft) 100,00 %
17.04.2017 18:42 7,4 C 86 % 1010,3 hPa 0,0 l/m 22,0 km/h (4 Bft) S-SW 194 0 min 0,000 mm 0,0 UV-I 25 W/m 5,2 C -0,8 C 33,8 km/h (5 Bft) 100,00 %
17.04.2017 18:44 7,4 C 86 % 1010,5 hPa 0,0 l/m 20,6 km/h (4 Bft) W-SW 254 0 min 0,000 mm 0,0 UV-I 18 W/m 5,2 C -0,3 C 35,4 km/h (5 Bft) 100,00 %
17.04.2017 18:46 7,4 C 86 % 1011,1 hPa 1,0 l/m 29,0 km/h (5 Bft) W 273 0 min 0,000 mm 0,0 UV-I 12 W/m 5,2 C -2,8 C 48,3 km/h (6 Bft) 100,00 %
17.04.2017 18:48 7,2 C 86 % 1011,4 hPa 0,4 l/m 22,2 km/h (4 Bft) W 265 0 min 0,000 mm 0,0 UV-I 14 W/m 5,0 C -1,1 C 30,6 km/h (5 Bft) 100,00 %
17.04.2017 18:50 6,8 C 86 % 1011,4 hPa 0,0 l/m 18,3 km/h (3 Bft) W 278 0 min 0,000 mm 0,0 UV-I 14 W/m 4,6 C -0,2 C 30,6 km/h (5 Bft) 100,00 %
17.04.2017 18:52 6,6 C 87 % 1011,3 hPa 0,0 l/m 23,8 km/h (4 Bft) W-SW 258 0 min 0,000 mm 0,0 UV-I 15 W/m 4,6 C -2,4 C 35,4 km/h (5 Bft) 98,00 %
17.04.2017 18:54 6,3 C 87 % 1011,4 hPa 0,2 l/m 22,9 km/h (4 Bft) W-SW 242 0 min 0,000 mm 0,0 UV-I 16 W/m 4,3 C -2,5 C 38,6 km/h (5 Bft) 97,87 %
17.04.2017 18:56 6,1 C 87 % 1011,3 hPa 0,0 l/m 19,2 km/h (3 Bft) W 267 0 min 0,000 mm 0,0 UV-I 18 W/m 4,1 C -1,4 C 27,4 km/h (4 Bft) 97,14 %
17.04.2017 18:58 5,9 C 88 % 1011,4 hPa 0,2 l/m 21,2 km/h (4 Bft) W 267 0 min 0,000 mm 0,0 UV-I 20 W/m 4,1 C -2,5 C 40,2 km/h (6 Bft) 98,31 %
17.04.2017 19:00 5,7 C 88 % 1011,3 hPa 0,0 l/m 21,8 km/h (4 Bft) W-SW 253 0 min 0,050 mm 0,0 UV-I 20 W/m 3,9 C -2,9 C 32,2 km/h (5 Bft) 97,37 %
17.04.2017 19:02 5,5 C 89 % 1011,3 hPa 0,2 l/m 22,0 km/h (4 Bft) SW 231 0 min 0,000 mm 0,0 UV-I 22 W/m 3,8 C -3,3 C 35,4 km/h (5 Bft) 97,56 %
17.04.2017 19:04 5,4 C 89 % 1011,3 hPa 0,0 l/m 20,8 km/h (4 Bft) SW 232 0 min 0,000 mm 0,0 UV-I 23 W/m 3,7 C -3,0 C 30,6 km/h (5 Bft) 98,31 %
17.04.2017 19:06 5,3 C 90 % 1011,3 hPa 0,0 l/m 20,3 km/h (4 Bft) W-SW 257 0 min 0,000 mm 0,0 UV-I 23 W/m 3,8 C -2,9 C 29,0 km/h (5 Bft) 97,37 %
17.04.2017 19:08 5,2 C 90 % 1011,4 hPa 0,2 l/m 18,3 km/h (3 Bft) W 262 0 min 0,000 mm 0,0 UV-I 25 W/m 3,7 C -2,2 C 29,0 km/h (5 Bft) 96,43 %
17.04.2017 19:10 5,1 C 90 % 1011,4 hPa 0,0 l/m 19,0 km/h (3 Bft) W 267 0 min 0,000 mm 0,0 UV-I 25 W/m 3,6 C -2,6 C 25,7 km/h (4 Bft) 95,12 %
17.04.2017 19:12 5,0 C 90 % 1011,4 hPa 0,0 l/m 20,3 km/h (4 Bft) W-SW 253 0 min 0,000 mm 0,0 UV-I 24 W/m 3,5 C -3,3 C 29,0 km/h (5 Bft) 100,00 %
17.04.2017 19:14 4,9 C 91 % 1011,5 hPa 0,0 l/m 16,5 km/h (3 Bft) W-SW 254 0 min 0,000 mm 0,0 UV-I 20 W/m 3,6 C -1,8 C 25,7 km/h (4 Bft) 94,92 %
17.04.2017 19:16 4,9 C 91 % 1011,5 hPa 0,0 l/m 17,5 km/h (3 Bft) W 261 0 min 0,000 mm 0,0 UV-I 16 W/m 3,6 C -2,2 C 25,7 km/h (4 Bft) 97,87 %
17.04.2017 19:18 4,8 C 91 % 1011,6 hPa 0,2 l/m 19,1 km/h (3 Bft) W 278 0 min 0,000 mm 0,0 UV-I 12 W/m 3,5 C -3,1 C 29,0 km/h (5 Bft) 97,56 %
17.04.2017 19:20 4,8 C 91 % 1011,6 hPa 0,0 l/m 15,1 km/h (3 Bft) W 262 0 min 0,000 mm 0,0 UV-I 11 W/m 3,5 C -1,2 C 19,3 km/h (3 Bft) 95,56 %
17.04.2017 19:22 4,8 C 91 % 1011,6 hPa 0,0 l/m 16,4 km/h (3 Bft) W-SW 252 0 min 0,000 mm 0,0 UV-I 11 W/m 3,5 C -1,9 C 25,7 km/h (4 Bft) 98,11 %
17.04.2017 19:24 4,7 C 92 % 1011,6 hPa 0,0 l/m 18,1 km/h (3 Bft) W-SW 240 0 min 0,000 mm 0,0 UV-I 10 W/m 3,5 C -2,8 C 27,4 km/h (4 Bft) 92,68 %
17.04.2017 19:26 4,7 C 91 % 1011,6 hPa 0,0 l/m 18,2 km/h (3 Bft) W 271 0 min 0,000 mm 0,0 UV-I 9 W/m 3,4 C -2,8 C 24,1 km/h (4 Bft) 96,43 %
17.04.2017 19:28 4,7 C 92 % 1011,6 hPa 0,0 l/m 17,2 km/h (3 Bft) W-SW 258 0 min 0,000 mm 0,0 UV-I 9 W/m 3,5 C -2,4 C 29,0 km/h (5 Bft) 100,00 %
17.04.2017 19:30 4,6 C 92 % 1011,6 hPa 0,0 l/m 15,5 km/h (3 Bft) W 259 0 min 0,000 mm 0,0 UV-I 9 W/m 3,4 C -1,7 C 20,9 km/h (4 Bft) 100,00 %
17.04.2017 19:32 4,6 C 92 % 1011,6 hPa 0,0 l/m 19,5 km/h (3 Bft) W-SW 252 0 min 0,000 mm 0,0 UV-I 8 W/m 3,4 C -3,5 C 30,6 km/h (5 Bft) 100,00 %
17.04.2017 19:34 4,6 C 92 % 1011,7 hPa 0,0 l/m 15,2 km/h (3 Bft) W 276 0 min 0,000 mm 0,0 UV-I 6 W/m 3,4 C -1,5 C 20,9 km/h (4 Bft) 100,00 %
17.04.2017 19:36 4,6 C 92 % 1011,7 hPa 0,0 l/m 18,2 km/h (3 Bft) SW 232 0 min 0,000 mm 0,0 UV-I 5 W/m 3,4 C -2,9 C 30,6 km/h (5 Bft) 100,00 %
17.04.2017 19:38 4,6 C 92 % 1011,7 hPa 0,0 l/m 20,1 km/h (4 Bft) W 273 0 min 0,000 mm 0,0 UV-I 5 W/m 3,4 C -3,7 C 29,0 km/h (5 Bft) 97,73 %
17.04.2017 19:40 4,6 C 92 % 1011,8 hPa 0,2 l/m 16,0 km/h (3 Bft) W 259 0 min 0,000 mm 0,0 UV-I 5 W/m 3,4 C -1,9 C 24,1 km/h (4 Bft) 96,00 %
17.04.2017 19:42 4,6 C 92 % 1011,9 hPa 0,0 l/m 19,2 km/h (3 Bft) W 261 0 min 0,000 mm 0,0 UV-I 5 W/m 3,4 C -3,4 C 27,4 km/h (4 Bft) 97,37 %
17.04.2017 19:44 4,5 C 92 % 1012,0 hPa 0,0 l/m 16,1 km/h (3 Bft) W 259 0 min 0,000 mm 0,0 UV-I 5 W/m 3,3 C -2,1 C 24,1 km/h (4 Bft) 98,11 %
17.04.2017 19:46 4,6 C 92 % 1012,0 hPa 0,0 l/m 13,8 km/h (3 Bft) W-SW 240 0 min 0,000 mm 0,0 UV-I 5 W/m 3,4 C -0,8 C 19,3 km/h (3 Bft) 100,00 %
17.04.2017 19:48 4,6 C 92 % 1012,0 hPa 0,0 l/m 16,1 km/h (3 Bft) SW 221 0 min 0,000 mm 0,0 UV-I 5 W/m 3,4 C -2,0 C 20,9 km/h (4 Bft) 100,00 %
17.04.2017 19:50 4,5 C 92 % 1012,1 hPa 0,0 l/m 17,7 km/h (3 Bft) W 261 0 min 0,000 mm 0,0 UV-I 5 W/m 3,3 C -2,8 C 24,1 km/h (4 Bft) 97,73 %
17.04.2017 19:52 4,5 C 92 % 1012,1 hPa 0,2 l/m 15,3 km/h (3 Bft) W-SW 250 0 min 0,000 mm 0,0 UV-I 1 W/m 3,3 C -1,7 C 22,5 km/h (4 Bft) 97,87 %
17.04.2017 19:54 4,5 C 92 % 1012,1 hPa 0,0 l/m 16,5 km/h (3 Bft) W-SW 252 0 min 0,000 mm 0,0 UV-I 0 W/m 3,3 C -2,3 C 27,4 km/h (4 Bft) 97,73 %
17.04.2017 19:56 4,5 C 93 % 1012,1 hPa 0,2 l/m 16,5 km/h (3 Bft) W-SW 239 0 min 0,000 mm 0,0 UV-I 1 W/m 3,5 C -2,3 C 29,0 km/h (5 Bft) 94,00 %
17.04.2017 19:58 4,5 C 93 % 1012,1 hPa 0,0 l/m 16,5 km/h (3 Bft) SW 220 0 min 0,000 mm 0,0 UV-I 5 W/m 3,5 C -2,3 C 27,4 km/h (4 Bft) 97,87 %
17.04.2017 20:00 4,5 C 93 % 1012,1 hPa 0,0 l/m 13,2 km/h (3 Bft) SW 231 0 min 0,026 mm 0,0 UV-I 5 W/m 3,5 C -0,5 C 22,5 km/h (4 Bft) 96,00 %
17.04.2017 20:02 4,5 C 93 % 1012,1 hPa 0,0 l/m 12,7 km/h (3 Bft) W 261 0 min 0,000 mm 0,0 UV-I 5 W/m 3,5 C -0,2 C 19,3 km/h (3 Bft) 97,44 %
17.04.2017 20:04 4,5 C 93 % 1012,2 hPa 0,0 l/m 13,8 km/h (3 Bft) W-SW 252 0 min 0,000 mm 0,0 UV-I 5 W/m 3,5 C -0,9 C 22,5 km/h (4 Bft) 96,43 %
17.04.2017 20:06 4,5 C 93 % 1012,2 hPa 0,0 l/m 13,1 km/h (3 Bft) W 261 0 min 0,000 mm 0,0 UV-I 4 W/m 3,5 C -0,5 C 22,5 km/h (4 Bft) 89,47 %
17.04.2017 20:08 4,6 C 93 % 1012,3 hPa 0,2 l/m 15,4 km/h (3 Bft) W-SW 249 0 min 0,000 mm 0,0 UV-I 0 W/m 3,6 C -1,6 C 24,1 km/h (4 Bft) 92,86 %
17.04.2017 20:10 4,6 C 93 % 1012,3 hPa 0,0 l/m 14,8 km/h (3 Bft) W-SW 244 0 min 0,000 mm 0,0 UV-I 0 W/m 3,6 C -1,3 C 20,9 km/h (4 Bft) 94,74 %
17.04.2017 20:12 4,6 C 93 % 1012,4 hPa 0,0 l/m 15,3 km/h (3 Bft) SW 231 0 min 0,000 mm 0,0 UV-I 0 W/m 3,6 C -1,6 C 20,9 km/h (4 Bft) 97,87 %
17.04.2017 20:14 4,6 C 93 % 1012,3 hPa 0,0 l/m 16,3 km/h (3 Bft) W 263 0 min 0,000 mm 0,0 UV-I 0 W/m 3,6 C -2,1 C 24,1 km/h (4 Bft) 98,00 %
17.04.2017 20:16 4,6 C 93 % 1012,4 hPa 0,0 l/m 14,0 km/h (3 Bft) W-SW 239 0 min 0,000 mm 0,0 UV-I 0 W/m 3,6 C -0,9 C 22,5 km/h (4 Bft) 96,15 %
17.04.2017 20:18 4,6 C 93 % 1012,4 hPa 0,0 l/m 13,8 km/h (3 Bft) W-SW 254 0 min 0,000 mm 0,0 UV-I 0 W/m 3,6 C -0,8 C 20,9 km/h (4 Bft) 97,30 %
17.04.2017 20:20 4,7 C 93 % 1012,4 hPa 0,0 l/m 12,6 km/h (3 Bft) W-SW 238 0 min 0,000 mm 0,0 UV-I 0 W/m 3,7 C 0,0 C 19,3 km/h (3 Bft) 97,56 %
17.04.2017 20:22 4,7 C 93 % 1012,5 hPa 0,0 l/m 14,4 km/h (3 Bft) SW 232 0 min 0,000 mm 0,0 UV-I 0 W/m 3,7 C -1,0 C 19,3 km/h (3 Bft) 95,45 %
17.04.2017 20:24 4,7 C 93 % 1012,5 hPa 0,0 l/m 16,4 km/h (3 Bft) SW 219 0 min 0,000 mm 0,0 UV-I 0 W/m 3,7 C -2,0 C 22,5 km/h (4 Bft) 97,87 %
17.04.2017 20:26 4,7 C 93 % 1012,5 hPa 0,0 l/m 16,7 km/h (3 Bft) W-SW 238 0 min 0,000 mm 0,0 UV-I 0 W/m 3,7 C -2,1 C 25,7 km/h (4 Bft) 97,87 %
17.04.2017 20:28 4,7 C 93 % 1012,5 hPa 0,0 l/m 15,5 km/h (3 Bft) W-SW 242 0 min 0,000 mm 0,0 UV-I 0 W/m 3,7 C -1,5 C 24,1 km/h (4 Bft) 96,23 %
17.04.2017 20:30 4,7 C 93 % 1012,6 hPa 0,0 l/m 17,6 km/h (3 Bft) W-SW 238 0 min 0,000 mm 0,0 UV-I 0 W/m 3,7 C -2,5 C 32,2 km/h (5 Bft) 97,73 %
17.04.2017 20:32 4,7 C 93 % 1012,6 hPa 0,0 l/m 21,3 km/h (4 Bft) W-SW 250 0 min 0,000 mm 0,0 UV-I 0 W/m 3,7 C -4,1 C 29,0 km/h (5 Bft) 98,11 %
17.04.2017 20:34 4,7 C 92 % 1012,6 hPa 0,0 l/m 16,1 km/h (3 Bft) W-SW 256 0 min 0,000 mm 0,0 UV-I 0 W/m 3,5 C -1,8 C 25,7 km/h (4 Bft) 97,22 %
17.04.2017 20:36 4,7 C 92 % 1012,6 hPa 0,0 l/m 21,5 km/h (4 Bft) SW 229 0 min 0,000 mm 0,0 UV-I 0 W/m 3,5 C -4,1 C 32,2 km/h (5 Bft) 98,08 %
17.04.2017 20:38 4,6 C 92 % 1012,7 hPa 0,0 l/m 22,9 km/h (4 Bft) S-SW 197 0 min 0,000 mm 0,0 UV-I 0 W/m 3,4 C -4,8 C 30,6 km/h (5 Bft) 98,00 %
17.04.2017 20:40 4,6 C 92 % 1012,7 hPa 0,0 l/m 19,2 km/h (3 Bft) SW 223 0 min 0,000 mm 0,0 UV-I 0 W/m 3,4 C -3,4 C 32,2 km/h (5 Bft) 95,74 %
17.04.2017 20:42 4,6 C 92 % 1012,9 hPa 0,0 l/m 17,7 km/h (3 Bft) S 188 0 min 0,000 mm 0,0 UV-I 0 W/m 3,4 C -2,7 C 25,7 km/h (4 Bft) 97,78 %
17.04.2017 20:44 4,5 C 92 % 1012,9 hPa 0,0 l/m 19,6 km/h (3 Bft) W-SW 254 0 min 0,000 mm 0,0 UV-I 0 W/m 3,3 C -3,7 C 32,2 km/h (5 Bft) 97,73 %
17.04.2017 20:46 4,5 C 92 % 1013,0 hPa 0,0 l/m 20,6 km/h (4 Bft) W-SW 252 0 min 0,000 mm 0,0 UV-I 0 W/m 3,3 C -4,1 C 29,0 km/h (5 Bft) 96,15 %
17.04.2017 20:48 4,5 C 92 % 1013,0 hPa 0,0 l/m 20,8 km/h (4 Bft) W-SW 245 0 min 0,000 mm 0,0 UV-I 0 W/m 3,3 C -4,1 C 29,0 km/h (5 Bft) 95,77 %
17.04.2017 20:50 4,4 C 92 % 1013,0 hPa 0,0 l/m 17,6 km/h (3 Bft) W-SW 243 0 min 0,000 mm 0,0 UV-I 0 W/m 3,2 C -2,9 C 27,4 km/h (4 Bft) 95,74 %
17.04.2017 20:52 4,4 C 92 % 1013,0 hPa 0,0 l/m 17,0 km/h (3 Bft) S-SW 201 0 min 0,000 mm 0,0 UV-I 0 W/m 3,2 C -2,6 C 27,4 km/h (4 Bft) 95,45 %
17.04.2017 20:54 4,4 C 92 % 1013,1 hPa 0,0 l/m 19,4 km/h (3 Bft) W-SW 244 0 min 0,000 mm 0,0 UV-I 0 W/m 3,2 C -3,7 C 29,0 km/h (5 Bft) 97,87 %
17.04.2017 20:56 4,4 C 92 % 1013,1 hPa 0,0 l/m 19,8 km/h (3 Bft) SW 215 0 min 0,000 mm 0,0 UV-I 0 W/m 3,2 C -3,9 C 33,8 km/h (5 Bft) 100,00 %
17.04.2017 20:58 4,4 C 92 % 1013,2 hPa 0,0 l/m 15,4 km/h (3 Bft) W-SW 245 0 min 0,000 mm 0,0 UV-I 0 W/m 3,2 C -1,9 C 22,5 km/h (4 Bft) 98,00 %
17.04.2017 21:00 4,3 C 92 % 1013,2 hPa 0,0 l/m 21,0 km/h (4 Bft) SW 222 0 min 0,025 mm 0,0 UV-I 0 W/m 3,1 C -4,5 C 29,0 km/h (5 Bft) 96,23 %
17.04.2017 21:02 4,3 C 92 % 1013,3 hPa 0,0 l/m 13,6 km/h (3 Bft) W-SW 245 0 min 0,000 mm 0,0 UV-I 0 W/m 3,1 C -1,0 C 27,4 km/h (4 Bft) 95,74 %
17.04.2017 21:04 4,3 C 92 % 1013,3 hPa 0,0 l/m 18,4 km/h (3 Bft) W-SW 248 0 min 0,000 mm 0,0 UV-I 0 W/m 3,1 C -3,4 C 29,0 km/h (5 Bft) 97,73 %
17.04.2017 21:06 4,3 C 92 % 1013,3 hPa 0,0 l/m 17,4 km/h (3 Bft) W-SW 245 0 min 0,000 mm 0,0 UV-I 0 W/m 3,1 C -3,0 C 22,5 km/h (4 Bft) 97,14 %
17.04.2017 21:08 4,4 C 92 % 1013,3 hPa 0,0 l/m 14,0 km/h (3 Bft) W-SW 239 0 min 0,000 mm 0,0 UV-I 0 W/m 3,2 C -1,1 C 20,9 km/h (4 Bft) 98,11 %
17.04.2017 21:10 4,4 C 92 % 1013,4 hPa 0,0 l/m 14,7 km/h (3 Bft) S-SW 205 0 min 0,000 mm 0,0 UV-I 0 W/m 3,2 C -1,5 C 20,9 km/h (4 Bft) 96,23 %
17.04.2017 21:12 4,4 C 92 % 1013,5 hPa 0,0 l/m 16,9 km/h (3 Bft) SW 232 0 min 0,000 mm 0,0 UV-I 0 W/m 3,2 C -2,6 C 25,7 km/h (4 Bft) 92,11 %
17.04.2017 21:14 4,4 C 92 % 1013,5 hPa 0,0 l/m 15,7 km/h (3 Bft) SW 236 0 min 0,000 mm 0,0 UV-I 0 W/m 3,2 C -2,0 C 22,5 km/h (4 Bft) 96,23 %
17.04.2017 21:16 4,4 C 92 % 1013,5 hPa 0,0 l/m 14,0 km/h (3 Bft) S-SW 207 0 min 0,000 mm 0,0 UV-I 0 W/m 3,2 C -1,1 C 27,4 km/h (4 Bft) 100,00 %
17.04.2017 21:18 4,4 C 92 % 1013,6 hPa 0,0 l/m 19,3 km/h (3 Bft) SW 215 0 min 0,000 mm 0,0 UV-I 0 W/m 3,2 C -3,7 C 33,8 km/h (5 Bft) 95,71 %
17.04.2017 21:20 4,4 C 92 % 1013,6 hPa 0,0 l/m 15,0 km/h (3 Bft) SW 223 0 min 0,000 mm 0,0 UV-I 0 W/m 3,2 C -1,7 C 25,7 km/h (4 Bft) 97,62 %
17.04.2017 21:22 4,4 C 92 % 1013,6 hPa 0,0 l/m 16,3 km/h (3 Bft) S-SW 209 0 min 0,000 mm 0,0 UV-I 0 W/m 3,2 C -2,3 C 29,0 km/h (5 Bft) 97,56 %
17.04.2017 21:24 4,4 C 92 % 1013,6 hPa 0,0 l/m 20,5 km/h (4 Bft) W-SW 240 0 min 0,000 mm 0,0 UV-I 0 W/m 3,2 C -4,1 C 32,2 km/h (5 Bft) 98,00 %
17.04.2017 21:26 4,3 C 92 % 1013,6 hPa 0,0 l/m 18,7 km/h (3 Bft) SW 229 0 min 0,000 mm 0,0 UV-I 0 W/m 3,1 C -3,5 C 25,7 km/h (4 Bft) 94,64 %
17.04.2017 21:28 4,3 C 92 % 1013,6 hPa 0,0 l/m 17,0 km/h (3 Bft) W-SW 250 0 min 0,000 mm 0,0 UV-I 0 W/m 3,1 C -2,8 C 27,4 km/h (4 Bft) 97,37 %
17.04.2017 21:30 4,3 C 92 % 1013,6 hPa 0,0 l/m 19,4 km/h (3 Bft) W-SW 244 0 min 0,000 mm 0,0 UV-I 0 W/m 3,1 C -3,8 C 29,0 km/h (5 Bft) 97,56 %
17.04.2017 21:32 4,3 C 92 % 1013,7 hPa 0,0 l/m 21,4 km/h (4 Bft) W-SW 247 0 min 0,000 mm 0,0 UV-I 0 W/m 3,1 C -4,6 C 30,6 km/h (5 Bft) 96,72 %
17.04.2017 21:34 4,3 C 92 % 1013,7 hPa 0,0 l/m 16,7 km/h (3 Bft) SW 219 0 min 0,000 mm 0,0 UV-I 0 W/m 3,1 C -2,6 C 29,0 km/h (5 Bft) 100,00 %
17.04.2017 21:36 4,3 C 92 % 1013,7 hPa 0,0 l/m 17,7 km/h (3 Bft) SW 229 0 min 0,000 mm 0,0 UV-I 0 W/m 3,1 C -3,1 C 27,4 km/h (4 Bft) 100,00 %
17.04.2017 21:38 4,3 C 92 % 1013,8 hPa 0,0 l/m 18,9 km/h (3 Bft) S-SW 209 0 min 0,000 mm 0,0 UV-I 0 W/m 3,1 C -3,6 C 29,0 km/h (5 Bft) 100,00 %
17.04.2017 21:40 4,3 C 92 % 1013,8 hPa 0,0 l/m 21,0 km/h (4 Bft) W-SW 237 0 min 0,000 mm 0,0 UV-I 0 W/m 3,1 C -4,5 C 27,4 km/h (4 Bft) 98,00 %
17.04.2017 21:42 4,3 C 92 % 1013,8 hPa 0,0 l/m 17,8 km/h (3 Bft) W-SW 252 0 min 0,000 mm 0,0 UV-I 0 W/m 3,1 C -3,1 C 27,4 km/h (4 Bft) 100,00 %
17.04.2017 21:44 4,3 C 92 % 1013,9 hPa 0,0 l/m 15,4 km/h (3 Bft) W-SW 243 0 min 0,000 mm 0,0 UV-I 0 W/m 3,1 C -2,0 C 22,5 km/h (4 Bft) 100,00 %
17.04.2017 21:46 4,3 C 92 % 1013,8 hPa 0,0 l/m 16,5 km/h (3 Bft) SW 219 0 min 0,000 mm 0,0 UV-I 0 W/m 3,1 C -2,5 C 25,7 km/h (4 Bft) 97,56 %
17.04.2017 21:48 4,3 C 92 % 1013,9 hPa 0,0 l/m 15,4 km/h (3 Bft) W-SW 244 0 min 0,000 mm 0,0 UV-I 0 W/m 3,1 C -2,0 C 22,5 km/h (4 Bft) 100,00 %
17.04.2017 21:50 4,3 C 92 % 1014,0 hPa 0,0 l/m 16,1 km/h (3 Bft) W-SW 238 0 min 0,000 mm 0,0 UV-I 0 W/m 3,1 C -2,3 C 25,7 km/h (4 Bft) 100,00 %
17.04.2017 21:52 4,3 C 92 % 1014,0 hPa 0,0 l/m 15,5 km/h (3 Bft) W 278 0 min 0,000 mm 0,0 UV-I 0 W/m 3,1 C -2,0 C 22,5 km/h (4 Bft) 100,00 %
17.04.2017 21:54 4,3 C 92 % 1014,0 hPa 0,0 l/m 16,3 km/h (3 Bft) W-SW 244 0 min 0,000 mm 0,0 UV-I 0 W/m 3,1 C -2,4 C 24,1 km/h (4 Bft) 100,00 %
17.04.2017 21:56 4,3 C 92 % 1014,0 hPa 0,0 l/m 15,6 km/h (3 Bft) W-SW 240 0 min 0,000 mm 0,0 UV-I 0 W/m 3,1 C -2,1 C 27,4 km/h (4 Bft) 100,00 %
17.04.2017 21:58 4,4 C 92 % 1014,1 hPa 0,0 l/m 15,0 km/h (3 Bft) W-SW 242 0 min 0,000 mm 0,0 UV-I 0 W/m 3,2 C -1,7 C 25,7 km/h (4 Bft) 100,00 %
17.04.2017 22:00 4,4 C 92 % 1014,1 hPa 0,0 l/m 21,1 km/h (4 Bft) SW 233 0 min 0,026 mm 0,0 UV-I 0 W/m 3,2 C -4,4 C 29,0 km/h (5 Bft) 100,00 %
17.04.2017 22:02 4,4 C 92 % 1014,1 hPa 0,0 l/m 22,5 km/h (4 Bft) SW 227 0 min 0,000 mm 0,0 UV-I 0 W/m 3,2 C -4,9 C 33,8 km/h (5 Bft) 98,21 %
17.04.2017 22:04 4,4 C 92 % 1014,2 hPa 0,0 l/m 21,1 km/h (4 Bft) SW 227 0 min 0,000 mm 0,0 UV-I 0 W/m 3,2 C -4,4 C 32,2 km/h (5 Bft) 100,00 %
17.04.2017 22:06 4,4 C 92 % 1014,2 hPa 0,0 l/m 18,2 km/h (3 Bft) W-SW 238 0 min 0,000 mm 0,0 UV-I 0 W/m 3,2 C -3,2 C 25,7 km/h (4 Bft) 100,00 %
17.04.2017 22:08 4,4 C 92 % 1014,2 hPa 0,0 l/m 21,0 km/h (4 Bft) W-SW 238 0 min 0,000 mm 0,0 UV-I 0 W/m 3,2 C -4,3 C 30,6 km/h (5 Bft) 100,00 %
17.04.2017 22:10 4,4 C 92 % 1014,2 hPa 0,0 l/m 17,6 km/h (3 Bft) W-SW 237 0 min 0,000 mm 0,0 UV-I 0 W/m 3,2 C -2,9 C 29,0 km/h (5 Bft) 100,00 %
17.04.2017 22:12 4,4 C 92 % 1014,2 hPa 0,0 l/m 22,0 km/h (4 Bft) SW 234 0 min 0,000 mm 0,0 UV-I 0 W/m 3,2 C -4,7 C 29,0 km/h (5 Bft) 100,00 %
17.04.2017 22:14 4,5 C 92 % 1014,3 hPa 0,0 l/m 15,3 km/h (3 Bft) W-SW 252 0 min 0,000 mm 0,0 UV-I 0 W/m 3,3 C -1,7 C 25,7 km/h (4 Bft) 100,00 %
17.04.2017 22:16 4,5 C 92 % 1014,3 hPa 0,0 l/m 17,8 km/h (3 Bft) SW 234 0 min 0,000 mm 0,0 UV-I 0 W/m 3,3 C -2,9 C 29,0 km/h (5 Bft) 100,00 %
17.04.2017 22:18 4,5 C 92 % 1014,3 hPa 0,0 l/m 17,3 km/h (3 Bft) SW 229 0 min 0,000 mm 0,0 UV-I 0 W/m 3,3 C -2,7 C 25,7 km/h (4 Bft) 97,56 %
17.04.2017 22:20 4,5 C 92 % 1014,3 hPa 0,0 l/m 20,2 km/h (4 Bft) SW 236 0 min 0,000 mm 0,0 UV-I 0 W/m 3,3 C -3,9 C 27,4 km/h (4 Bft) 98,11 %
17.04.2017 22:22 4,5 C 92 % 1014,3 hPa 0,0 l/m 16,6 km/h (3 Bft) W-SW 250 0 min 0,000 mm 0,0 UV-I 0 W/m 3,3 C -2,3 C 24,1 km/h (4 Bft) 100,00 %
17.04.2017 22:24 4,6 C 92 % 1014,4 hPa 0,0 l/m 15,7 km/h (3 Bft) S-SW 209 0 min 0,000 mm 0,0 UV-I 0 W/m 3,4 C -1,8 C 24,1 km/h (4 Bft) 100,00 %
17.04.2017 22:26 4,6 C 92 % 1014,3 hPa 0,0 l/m 16,1 km/h (3 Bft) W-SW 250 0 min 0,000 mm 0,0 UV-I 0 W/m 3,4 C -2,0 C 25,7 km/h (4 Bft) 100,00 %
17.04.2017 22:28 4,6 C 92 % 1014,3 hPa 0,0 l/m 19,7 km/h (3 Bft) W-SW 240 0 min 0,000 mm 0,0 UV-I 0 W/m 3,4 C -3,6 C 29,0 km/h (5 Bft) 100,00 %
17.04.2017 22:30 4,6 C 92 % 1014,3 hPa 0,0 l/m 14,0 km/h (3 Bft) W-SW 237 0 min 0,000 mm 0,0 UV-I 0 W/m 3,4 C -0,9 C 20,9 km/h (4 Bft) 100,00 %
17.04.2017 22:32 4,6 C 92 % 1014,4 hPa 0,0 l/m 14,9 km/h (3 Bft) SW 221 0 min 0,000 mm 0,0 UV-I 0 W/m 3,4 C -1,4 C 20,9 km/h (4 Bft) 98,11 %
17.04.2017 22:34 4,6 C 92 % 1014,3 hPa 0,0 l/m 15,0 km/h (3 Bft) W 263 0 min 0,000 mm 0,0 UV-I 0 W/m 3,4 C -1,4 C 25,7 km/h (4 Bft) 100,00 %
17.04.2017 22:36 4,6 C 92 % 1014,3 hPa 0,0 l/m 13,3 km/h (3 Bft) SW 227 0 min 0,000 mm 0,0 UV-I 0 W/m 3,4 C -0,5 C 19,3 km/h (3 Bft) 100,00 %
17.04.2017 22:38 4,6 C 92 % 1014,4 hPa 0,0 l/m 15,3 km/h (3 Bft) W-SW 238 0 min 0,000 mm 0,0 UV-I 0 W/m 3,4 C -1,6 C 24,1 km/h (4 Bft) 100,00 %
17.04.2017 22:40 4,6 C 92 % 1014,4 hPa 0,0 l/m 12,2 km/h (2 Bft) SW 229 0 min 0,000 mm 0,0 UV-I 0 W/m 3,4 C 0,2 C 17,7 km/h (3 Bft) 100,00 %
17.04.2017 22:42 4,6 C 92 % 1014,4 hPa 0,0 l/m 15,8 km/h (3 Bft) W-SW 255 0 min 0,000 mm 0,0 UV-I 0 W/m 3,4 C -1,8 C 20,9 km/h (4 Bft) 100,00 %
17.04.2017 22:44 4,6 C 92 % 1014,4 hPa 0,0 l/m 13,2 km/h (3 Bft) W-SW 252 0 min 0,000 mm 0,0 UV-I 0 W/m 3,4 C -0,4 C 17,7 km/h (3 Bft) 100,00 %
17.04.2017 22:46 4,6 C 92 % 1014,4 hPa 0,0 l/m 14,3 km/h (3 Bft) W-SW 244 0 min 0,000 mm 0,0 UV-I 0 W/m 3,4 C -1,0 C 24,1 km/h (4 Bft) 100,00 %
17.04.2017 22:48 4,6 C 92 % 1014,4 hPa 0,0 l/m 14,7 km/h (3 Bft) SW 221 0 min 0,000 mm 0,0 UV-I 0 W/m 3,4 C -1,3 C 19,3 km/h (3 Bft) 100,00 %
17.04.2017 22:50 4,6 C 92 % 1014,5 hPa 0,0 l/m 12,7 km/h (3 Bft) W-SW 253 0 min 0,000 mm 0,0 UV-I 0 W/m 3,4 C -0,1 C 19,3 km/h (3 Bft) 100,00 %
17.04.2017 22:52 4,7 C 92 % 1014,4 hPa 0,0 l/m 13,0 km/h (3 Bft) W 267 0 min 0,000 mm 0,0 UV-I 0 W/m 3,5 C -0,2 C 20,9 km/h (4 Bft) 100,00 %
17.04.2017 22:54 4,7 C 92 % 1014,5 hPa 0,0 l/m 15,0 km/h (3 Bft) W 264 0 min 0,000 mm 0,0 UV-I 0 W/m 3,5 C -1,3 C 25,7 km/h (4 Bft) 100,00 %
17.04.2017 22:56 4,7 C 92 % 1014,5 hPa 0,0 l/m 14,1 km/h (3 Bft) W-SW 249 0 min 0,000 mm 0,0 UV-I 0 W/m 3,5 C -0,8 C 20,9 km/h (4 Bft) 100,00 %
17.04.2017 22:58 4,7 C 92 % 1014,5 hPa 0,0 l/m 14,6 km/h (3 Bft) W-SW 257 0 min 0,000 mm 0,0 UV-I 0 W/m 3,5 C -1,1 C 20,9 km/h (4 Bft) 100,00 %
17.04.2017 23:00 4,7 C 92 % 1014,5 hPa 0,0 l/m 15,6 km/h (3 Bft) W-SW 241 0 min 0,000 mm 0,0 UV-I 0 W/m 3,5 C -1,6 C 22,5 km/h (4 Bft) 100,00 %
17.04.2017 23:02 4,7 C 92 % 1014,5 hPa 0,0 l/m 13,2 km/h (3 Bft) W 259 0 min 0,025 mm 0,0 UV-I 0 W/m 3,5 C -0,3 C 20,9 km/h (4 Bft) 100,00 %
17.04.2017 23:04 4,7 C 92 % 1014,6 hPa 0,0 l/m 12,6 km/h (3 Bft) W 280 0 min 0,000 mm 0,0 UV-I 0 W/m 3,5 C 0,0 C 19,3 km/h (3 Bft) 95,12 %
17.04.2017 23:06 4,7 C 92 % 1014,6 hPa 0,0 l/m 15,3 km/h (3 Bft) W 261 0 min 0,000 mm 0,0 UV-I 0 W/m 3,5 C -1,4 C 22,5 km/h (4 Bft) 96,23 %
17.04.2017 23:08 4,7 C 92 % 1014,5 hPa 0,0 l/m 15,4 km/h (3 Bft) W-SW 242 0 min 0,000 mm 0,0 UV-I 0 W/m 3,5 C -1,5 C 22,5 km/h (4 Bft) 97,73 %
17.04.2017 23:10 4,7 C 92 % 1014,6 hPa 0,0 l/m 11,8 km/h (2 Bft) SW 234 0 min 0,000 mm 0,0 UV-I 0 W/m 3,5 C 0,5 C 20,9 km/h (4 Bft) 96,61 %
17.04.2017 23:12 4,7 C 92 % 1014,7 hPa 0,0 l/m 16,8 km/h (3 Bft) SW 235 0 min 0,000 mm 0,0 UV-I 0 W/m 3,5 C -2,2 C 22,5 km/h (4 Bft) 100,00 %
17.04.2017 23:14 4,8 C 92 % 1014,7 hPa 0,0 l/m 14,0 km/h (3 Bft) W 266 0 min 0,000 mm 0,0 UV-I 0 W/m 3,6 C -0,6 C 19,3 km/h (3 Bft) 96,00 %
17.04.2017 23:16 4,8 C 92 % 1014,7 hPa 0,0 l/m 14,6 km/h (3 Bft) W-SW 250 0 min 0,000 mm 0,0 UV-I 0 W/m 3,6 C -1,0 C 19,3 km/h (3 Bft) 97,44 %
17.04.2017 23:18 4,8 C 92 % 1014,8 hPa 0,0 l/m 15,6 km/h (3 Bft) SW 236 0 min 0,000 mm 0,0 UV-I 0 W/m 3,6 C -1,5 C 22,5 km/h (4 Bft) 98,21 %
17.04.2017 23:20 4,8 C 92 % 1014,7 hPa 0,0 l/m 14,2 km/h (3 Bft) W 261 0 min 0,000 mm 0,0 UV-I 0 W/m 3,6 C -0,7 C 24,1 km/h (4 Bft) 97,14 %
17.04.2017 23:22 4,8 C 92 % 1014,8 hPa 0,0 l/m 15,0 km/h (3 Bft) W 278 0 min 0,000 mm 0,0 UV-I 0 W/m 3,6 C -1,2 C 22,5 km/h (4 Bft) 98,11 %
17.04.2017 23:24 4,7 C 91 % 1014,8 hPa 0,0 l/m 14,4 km/h (3 Bft) W-SW 255 0 min 0,000 mm 0,0 UV-I 0 W/m 3,4 C -1,0 C 20,9 km/h (4 Bft) 98,11 %
17.04.2017 23:26 4,7 C 91 % 1014,8 hPa 0,0 l/m 15,0 km/h (3 Bft) W-SW 241 0 min 0,000 mm 0,0 UV-I 0 W/m 3,4 C -1,3 C 19,3 km/h (3 Bft) 98,00 %
17.04.2017 23:28 4,7 C 91 % 1014,8 hPa 0,0 l/m 13,4 km/h (3 Bft) W 261 0 min 0,000 mm 0,0 UV-I 0 W/m 3,4 C -0,4 C 19,3 km/h (3 Bft) 95,45 %
17.04.2017 23:30 4,7 C 91 % 1014,9 hPa 0,0 l/m 9,7 km/h (2 Bft) W 261 0 min 0,000 mm 0,0 UV-I 0 W/m 3,4 C 2,0 C 12,9 km/h (3 Bft) 97,73 %
17.04.2017 23:32 4,7 C 90 % 1014,9 hPa 0,0 l/m 10,7 km/h (2 Bft) W 259 0 min 0,000 mm 0,0 UV-I 0 W/m 3,2 C 1,3 C 19,3 km/h (3 Bft) 95,45 %
17.04.2017 23:34 4,7 C 90 % 1014,9 hPa 0,0 l/m 11,4 km/h (2 Bft) W 271 0 min 0,000 mm 0,0 UV-I 0 W/m 3,2 C 0,8 C 17,7 km/h (3 Bft) 97,73 %
17.04.2017 23:36 4,6 C 90 % 1014,9 hPa 0,0 l/m 12,7 km/h (3 Bft) W 275 0 min 0,000 mm 0,0 UV-I 0 W/m 3,1 C -0,1 C 20,9 km/h (4 Bft) 98,11 %
17.04.2017 23:38 4,6 C 90 % 1014,9 hPa 0,0 l/m 15,6 km/h (3 Bft) W-SW 251 0 min 0,000 mm 0,0 UV-I 0 W/m 3,1 C -1,7 C 22,5 km/h (4 Bft) 96,00 %
17.04.2017 23:40 4,6 C 90 % 1014,9 hPa 0,0 l/m 11,6 km/h (2 Bft) W 263 0 min 0,000 mm 0,0 UV-I 0 W/m 3,1 C 0,5 C 19,3 km/h (3 Bft) 97,37 %
17.04.2017 23:42 4,6 C 90 % 1014,9 hPa 0,0 l/m 12,8 km/h (3 Bft) W-SW 258 0 min 0,000 mm 0,0 UV-I 0 W/m 3,1 C -0,2 C 17,7 km/h (3 Bft) 98,21 %
17.04.2017 23:44 4,6 C 90 % 1014,8 hPa 0,0 l/m 10,9 km/h (2 Bft) W 267 0 min 0,000 mm 0,0 UV-I 0 W/m 3,1 C 1,0 C 17,7 km/h (3 Bft) 96,30 %
17.04.2017 23:46 4,6 C 90 % 1014,9 hPa 0,0 l/m 15,4 km/h (3 Bft) W 265 0 min 0,000 mm 0,0 UV-I 0 W/m 3,1 C -1,6 C 24,1 km/h (4 Bft) 95,52 %
17.04.2017 23:48 4,6 C 90 % 1014,9 hPa 0,0 l/m 8,6 km/h (2 Bft) W-SW 252 0 min 0,000 mm 0,0 UV-I 0 W/m 3,1 C 2,7 C 12,9 km/h (3 Bft) 97,37 %
17.04.2017 23:50 4,5 C 90 % 1015,0 hPa 0,0 l/m 11,8 km/h (2 Bft) W-SW 256 0 min 0,000 mm 0,0 UV-I 0 W/m 3,0 C 0,3 C 19,3 km/h (3 Bft) 97,87 %
17.04.2017 23:52 4,5 C 90 % 1015,0 hPa 0,0 l/m 15,9 km/h (3 Bft) W 260 0 min 0,000 mm 0,0 UV-I 0 W/m 3,0 C -2,0 C 27,4 km/h (4 Bft) 94,44 %
17.04.2017 23:54 4,5 C 90 % 1015,0 hPa 0,0 l/m 11,4 km/h (2 Bft) W-SW 248 0 min 0,000 mm 0,0 UV-I 0 W/m 3,0 C 0,6 C 16,1 km/h (3 Bft) 100,00 %
17.04.2017 23:56 4,5 C 90 % 1015,0 hPa 0,0 l/m 15,1 km/h (3 Bft) W-NW 285 0 min 0,000 mm 0,0 UV-I 0 W/m 3,0 C -1,6 C 20,9 km/h (4 Bft) 93,62 %
17.04.2017 23:58 4,5 C 90 % 1015,0 hPa 0,0 l/m 14,2 km/h (3 Bft) W 279 0 min 0,000 mm 0,0 UV-I 0 W/m 3,0 C -1,1 C 25,7 km/h (4 Bft) 98,11 %
_ Min-Zeit 00:54 15:28 18:30 - 08:46 - - - - - - 00:36 22:02 01:14 12:58
Minimum _ 4,1 C 63 % 1010,3 hPa - 5,6 km/h (1 Bft) - - - - - - 2,7 C -4,9 C 9,7 km/h (2 Bft) 75,86 %
_ Max-Zeit 15:28 02:20 00:02 18:46 16:06 - - 10:00 15:00 12:48 14:14 14:46 14:06 16:08 00:16
Maximum _ 10,8 C 94 % 1018,8 hPa 1,0 l/m 34,3 km/h
W-SW (5 Bft)
- - 4 min 0,305 mm 3,6 UV-I 983 W/m 5,5 C 8,8 C 51,5 km/h
W (7 Bft)
100,00 %
Durchschnitt _ 5,9 C 87 % 1015,3 hPa #6,2 l/m 14,2 km/h (3 Bft) W-SW - #3:20 h #1,905 mm 1,9 UV-I 231 W/m 3,7 C 0,9 C 22,1 km/h (4 Bft) 96,87 %